IZ1WIY-3 Weather Reports


time (UTC)temp
C
wind
direction
speed
KPH
gust
KPH
rain 1hr
cm
rain 24hr
cm
rain mn
cm
humidity
%
barometer
mb
20260506104603 18 217 11.3 29.0 0.00 2.87 2.87 82 1010.6
20260506104503 18 217 11.3 29.0 0.00 2.87 2.87 83 1010.6
20260506104403 18 218 12.9 29.0 0.00 2.87 2.87 83 1010.6
20260506104303 18 217 12.9 29.0 0.00 2.87 2.87 82 1010.6
20260506104203 18 218 12.9 29.0 0.00 2.87 2.87 82 1010.6
20260506104103 18 217 12.9 29.0 0.00 2.87 2.87 81 1010.7
20260506104003 18 217 12.9 29.0 0.00 2.87 2.87 81 1010.6
20260506103903 18 215 14.5 30.6 0.00 2.87 2.87 82 1010.7
20260506103803 18 215 14.5 30.6 0.00 2.87 2.87 82 1010.6
20260506103703 18 215 14.5 30.6 0.00 2.87 2.87 82 1010.6
20260506103603 18 218 14.5 30.6 0.00 2.87 2.87 82 1010.6
20260506103503 18 218 14.5 30.6 0.00 2.87 2.87 82 1010.6
20260506103403 18 217 14.5 30.6 0.00 2.87 2.87 82 1010.6
20260506103303 18 217 14.5 30.6 0.00 2.87 2.87 82 1010.6
20260506103203 18 216 14.5 32.2 0.00 2.87 2.87 82 1010.6
20260506103103 18 217 14.5 32.2 0.00 2.87 2.87 82 1010.5
20260506103003 18 217 14.5 32.2 0.00 2.87 2.87 81 1010.6
20260506102903 18 217 14.5 32.2 0.00 2.87 2.87 82 1010.6
20260506102803 18 217 14.5 32.2 0.00 2.87 2.87 82 1010.6
20260506102703 18 217 14.5 32.2 0.00 2.87 2.87 82 1010.5
20260506102603 18 216 14.5 32.2 0.00 2.87 2.87 82 1010.6
20260506102503 18 216 14.5 32.2 0.00 2.87 2.87 82 1010.6
20260506102404 18 217 14.5 32.2 0.00 2.87 2.87 82 1010.6
20260506102305 18 218 14.5 32.2 0.00 2.87 2.87 83 1010.6
20260506102203 18 218 14.5 32.2 0.00 2.87 2.87 83 1010.6
20260506102103 18 217 14.5 32.2 0.00 2.87 2.87 83 1010.6
20260506102004 18 218 14.5 32.2 0.00 2.87 2.87 83 1010.5
20260506101903 18 219 12.9 32.2 0.00 2.87 2.87 83 1010.6
20260506101803 18 219 12.9 32.2 0.00 2.87 2.87 83 1010.6
20260506101703 18 218 12.9 32.2 0.00 2.87 2.87 83 1010.6
20260506101603 18 219 12.9 32.2 0.00 2.87 2.87 83 1010.6
20260506101503 18 218 12.9 32.2 0.00 2.87 2.87 84 1010.6
20260506101403 18 217 12.9 32.2 0.00 2.87 2.87 83 1010.5
20260506101303 18 215 12.9 32.2 0.00 2.87 2.87 83 1010.6
20260506101203 18 215 12.9 30.6 0.00 2.87 2.87 84 1010.5
20260506101103 18 215 12.9 30.6 0.00 2.87 2.87 83 1010.5
20260506101003 18 214 12.9 30.6 0.00 2.87 2.87 83 1010.5
20260506100903 18 212 11.3 29.0 0.00 2.87 2.87 84 1010.5
20260506100803 18 211 11.3 29.0 0.00 2.87 2.87 84 1010.5
20260506100703 18 212 11.3 29.0 0.00 2.87 2.87 83 1010.5
20260506100604 18 212 12.9 29.0 0.00 2.87 2.87 84 1010.5
20260506100403 18 214 12.9 29.0 0.00 2.87 2.87 84 1010.5
20260506100303 18 214 12.9 29.0 0.00 2.87 2.87 84 1010.5
20260506100203 18 214 12.9 29.0 0.00 2.87 2.87 84 1010.4
20260506100103 18 214 12.9 29.0 0.00 2.87 2.87 84 1010.5
20260506100004 18 214 14.5 27.4 0.00 2.87 2.87 85 1010.4
20260506095903 18 214 14.5 27.4 0.00 2.87 2.87 85 1010.4
20260506095803 18 215 14.5 27.4 0.00 2.87 2.87 85 1010.5
20260506095703 18 212 14.5 27.4 0.00 2.87 2.87 85 1010.4
20260506095603 18 211 14.5 27.4 0.00 2.87 2.87 85 1010.4
20260506095503 18 210 14.5 33.8 0.00 2.87 2.87 85 1010.4
20260506095403 18 210 14.5 33.8 0.00 2.87 2.87 85 1010.4
20260506095305 18 209 14.5 33.8 0.00 2.87 2.87 85 1010.4
20260506095203 18 208 14.5 33.8 0.00 2.87 2.87 85 1010.4
20260506095103 18 207 14.5 33.8 0.00 2.87 2.87 85 1010.4
20260506095003 18 207 14.5 33.8 0.00 2.87 2.87 85 1010.3
20260506094903 18 205 14.5 33.8 0.00 2.87 2.87 85 1010.3
20260506094803 18 203 14.5 33.8 0.00 2.87 2.87 85 1010.4
20260506094703 18 207 14.5 33.8 0.00 2.87 2.87 85 1010.4
20260506094603 18 209 16.1 33.8 0.00 2.87 2.87 85 1010.3
20260506094503 18 210 16.1 30.6 0.00 2.87 2.87 85 1010.4
20260506094403 18 210 16.1 35.4 0.00 2.87 2.87 86 1010.3
20260506094303 18 211 16.1 35.4 0.00 2.87 2.87 86 1010.3
20260506094203 18 211 16.1 35.4 0.00 2.87 2.87 86 1010.3
20260506094103 18 212 16.1 35.4 0.00 2.87 2.87 86 1010.4
20260506094003 18 213 16.1 35.4 0.00 2.87 2.87 85 1010.3
20260506093903 18 215 16.1 35.4 0.00 2.87 2.87 86 1010.3
20260506093803 18 215 16.1 35.4 0.00 2.87 2.87 86 1010.3
20260506093703 18 214 14.5 35.4 0.00 2.87 2.87 85 1010.3
20260506093603 18 213 14.5 35.4 0.00 2.87 2.87 85 1010.3
20260506093503 18 211 14.5 35.4 0.00 2.87 2.87 85 1010.3
20260506093403 17 211 14.5 32.2 0.00 2.87 2.87 85 1010.2
20260506093303 18 209 14.5 32.2 0.00 2.87 2.87 85 1010.2
20260506093203 17 208 14.5 32.2 0.00 2.87 2.87 85 1010.2
20260506093103 17 207 14.5 32.2 0.00 2.87 2.87 85 1010.2
20260506093003 18 205 14.5 27.4 0.00 2.87 2.87 85 1010.1
20260506092903 17 203 14.5 27.4 0.00 2.87 2.87 86 1010.1
20260506092803 18 204 14.5 27.4 0.00 2.87 2.87 86 1010.1
20260506092703 18 202 14.5 27.4 0.00 2.87 2.87 86 1010.1
20260506092603 18 200 14.5 29.0 0.00 2.87 2.87 86 1010.1
20260506092503 18 199 14.5 29.0 0.00 2.87 2.87 86 1010.1
20260506092403 18 200 14.5 29.0 0.00 2.87 2.87 86 1010.1
20260506092305 18 199 14.5 29.0 0.00 2.87 2.87 86 1010.0
20260506092203 18 201 14.5 29.0 0.00 2.87 2.87 86 1010.1
20260506092103 18 201 14.5 29.0 0.00 2.87 2.87 86 1010.0
20260506092003 18 201 14.5 29.0 0.00 2.87 2.87 86 1010.0
20260506091903 18 202 14.5 29.0 0.03 2.87 2.87 86 1010.0
20260506091803 18 202 14.5 30.6 0.03 2.87 2.87 86 1010.0
20260506091703 18 202 14.5 30.6 0.03 2.87 2.87 86 1010.0
20260506091603 18 203 14.5 30.6 0.03 2.87 2.87 86 1010.0
20260506091503 18 204 14.5 30.6 0.03 2.87 2.87 86 1010.0
20260506091403 18 203 14.5 30.6 0.03 2.87 2.87 86 1010.0
20260506091303 18 204 14.5 30.6 0.03 2.87 2.87 87 1010.0
20260506091203 18 202 14.5 30.6 0.03 2.87 2.87 87 1010.0
20260506091103 18 202 14.5 30.6 0.03 2.87 2.87 87 1010.0
20260506091003 18 202 14.5 30.6 0.03 2.87 2.87 87 1010.0
20260506090903 18 201 14.5 30.6 0.03 2.87 2.87 87 1010.0
20260506090803 18 202 14.5 27.4 0.03 2.87 2.87 87 1010.0
20260506090703 18 202 14.5 29.0 0.03 2.87 2.87 86 1010.0
20260506090603 17 201 14.5 29.0 0.03 2.87 2.87 86 1010.0
20260506090503 17 202 14.5 29.0 0.03 2.87 2.87 86 1010.0
20260506090403 17 203 14.5 29.0 0.03 2.87 2.87 86 1010.0
20260506090303 17 204 14.5 29.0 0.03 2.87 2.87 86 1010.0
20260506090203 17 206 14.5 29.0 0.03 2.87 2.87 86 1010.0
20260506090003 17 211 14.5 40.2 0.03 2.87 2.87 86 1009.9
20260506085903 17 214 14.5 40.2 0.03 2.87 2.87 87 1009.9
20260506085803 17 214 14.5 40.2 0.03 2.87 2.87 86 1009.9
20260506085703 17 215 14.5 40.2 0.03 2.87 2.87 86 1009.9
20260506085603 17 215 14.5 40.2 0.03 2.87 2.87 86 1009.8
20260506085503 17 214 12.9 40.2 0.03 2.87 2.87 86 1009.9
20260506085403 17 212 12.9 40.2 0.03 2.87 2.87 86 1009.9
20260506085305 17 212 12.9 40.2 0.03 2.87 2.87 86 1009.9
20260506085203 17 212 12.9 40.2 0.03 2.87 2.87 86 1009.9
20260506085104 17 211 11.3 30.6 0.03 2.87 2.87 86 1009.9
20260506085003 17 210 11.3 30.6 0.03 2.87 2.87 87 1009.9
20260506084903 17 209 11.3 30.6 0.03 2.87 2.87 87 1009.9
20260506084803 17 209 11.3 30.6 0.03 2.87 2.87 87 1009.9
20260506084703 17 209 11.3 30.6 0.03 2.87 2.87 86 1009.9
20260506084603 17 210 11.3 30.6 0.03 2.87 2.87 87 1009.9
20260506084503 17 211 11.3 30.6 0.03 2.87 2.87 87 1009.9
20260506084403 17 214 11.3 30.6 0.03 2.87 2.87 87 1009.8
20260506084303 17 213 11.3 30.6 0.03 2.87 2.87 87 1009.8
20260506084203 17 213 11.3 29.0 0.03 2.87 2.87 87 1009.8
20260506084103 17 211 11.3 22.5 0.03 2.87 2.87 88 1009.8
20260506084003 17 211 11.3 29.0 0.03 2.87 2.87 88 1009.8
20260506083903 17 212 12.9 29.0 0.03 2.87 2.87 88 1009.8
20260506083803 17 211 12.9 29.0 0.03 2.87 2.87 87 1009.8
20260506083703 17 211 12.9 29.0 0.03 2.87 2.87 87 1009.8
20260506083603 17 211 14.5 29.0 0.03 2.87 2.87 87 1009.8
20260506083503 17 210 14.5 33.8 0.03 2.87 2.87 87 1009.7
20260506083403 17 208 14.5 33.8 0.03 2.87 2.87 87 1009.7
20260506083303 17 209 14.5 33.8 0.03 2.87 2.87 87 1009.8
20260506083203 17 206 14.5 33.8 0.03 2.87 2.87 87 1009.8
20260506083103 17 206 14.5 33.8 0.03 2.87 2.87 87 1009.8
20260506083003 17 205 14.5 33.8 0.03 2.87 2.87 87 1009.7
20260506082903 17 205 14.5 33.8 0.03 2.87 2.87 87 1009.8
20260506082803 17 205 14.5 33.8 0.03 2.87 2.87 86 1009.7
20260506082703 17 207 14.5 33.8 0.03 2.87 2.87 86 1009.7
20260506082603 17 207 14.5 33.8 0.03 2.87 2.87 86 1009.7
20260506082503 17 208 12.9 33.8 0.03 2.87 2.87 86 1009.6
20260506082403 17 211 12.9 33.8 0.03 2.87 2.87 86 1009.6
20260506082305 17 211 12.9 33.8 0.03 2.87 2.87 87 1009.6
20260506082203 17 213 12.9 32.2 0.03 2.87 2.87 87 1009.6
20260506082103 17 213 12.9 32.2 0.03 2.87 2.87 87 1009.5
20260506082003 17 213 11.3 32.2 0.03 2.87 2.87 87 1009.4
20260506081803 17 213 11.3 32.2 0.00 2.84 2.84 87 1009.4
20260506081704 17 212 11.3 32.2 0.00 2.84 2.84 88 1009.5
20260506081603 17 209 11.3 27.4 0.00 2.84 2.84 88 1009.3
20260506081503 17 209 11.3 29.0 0.00 2.84 2.84 87 1009.4
20260506081403 17 207 11.3 29.0 0.00 2.84 2.84 87 1009.4
20260506081303 17 209 11.3 29.0 0.00 2.84 2.84 86 1009.5
20260506081203 17 208 9.7 29.0 0.00 2.84 2.84 86 1009.4
20260506081103 17 208 9.7 29.0 0.00 2.84 2.84 86 1009.4
20260506081003 17 209 9.7 29.0 0.00 2.84 2.84 86 1009.4
20260506080903 17 209 9.7 29.0 0.00 2.84 2.84 86 1009.5
20260506080804 17 208 9.7 29.0 0.00 2.84 2.84 87 1009.6
20260506080703 17 208 9.7 29.0 0.00 2.84 2.84 87 1009.5
20260506080603 17 210 9.7 29.0 0.00 2.84 2.84 87 1009.5
20260506080503 17 213 9.7 29.0 0.00 2.84 2.84 88 1009.6
20260506080403 17 210 9.7 29.0 0.00 2.84 2.84 88 1009.5
20260506080303 17 209 9.7 29.0 0.00 2.84 2.84 88 1009.5
20260506080203 17 211 9.7 25.7 0.00 2.84 2.84 88 1009.4
20260506080103 17 212 9.7 25.7 0.00 2.84 2.84 88 1009.4
20260506073503 17 206 11.3 33.8 0.00 2.84 2.84 87 1009.6
20260506073404 17 205 11.3 33.8 0.00 2.84 2.84 87 1009.6
20260506073303 17 203 11.3 33.8 0.00 2.84 2.84 87 1009.7
20260506073203 17 205 11.3 33.8 0.00 2.84 2.84 87 1009.7
20260506073103 17 206 11.3 32.2 0.00 2.84 2.84 87 1009.7
20260506073003 17 206 11.3 32.2 0.00 2.84 2.84 87 1009.6
20260506072903 17 202 12.9 27.4 0.00 2.84 2.84 88 1009.7
20260506072803 17 203 12.9 27.4 0.00 2.84 2.84 87 1009.6
20260506072703 17 201 12.9 27.4 0.00 2.84 2.84 87 1009.7
20260506072603 17 201 12.9 27.4 0.00 2.84 2.84 87 1009.7
20260506072503 17 202 12.9 27.4 0.00 2.84 2.84 87 1009.7
20260506072403 17 202 12.9 27.4 0.00 2.84 2.84 87 1009.7
20260506072305 17 204 12.9 27.4 0.00 2.84 2.84 87 1009.8
20260506072203 17 200 12.9 27.4 0.00 2.84 2.84 87 1009.7
20260506072103 17 200 12.9 27.4 0.00 2.84 2.84 87 1009.6
20260506072003 17 198 12.9 30.6 0.00 2.84 2.84 87 1009.6
20260506071903 17 201 12.9 32.2 0.00 2.84 2.84 86 1009.6
20260506071703 17 202 12.9 32.2 0.00 2.84 2.84 86 1009.6
20260506071603 17 200 12.9 32.2 0.00 2.84 2.84 86 1009.5
20260506071503 17 200 12.9 32.2 0.00 2.84 2.84 86 1009.6
20260506071403 17 202 11.3 32.2 0.00 2.84 2.84 86 1009.6
20260506071303 17 203 11.3 32.2 0.00 2.84 2.84 85 1009.7
20260506071203 17 207 11.3 32.2 0.00 2.84 2.84 86 1009.7
20260506071118 17 205 11.3 32.2 0.00 2.84 2.84 85 1009.6
20260506071003 17 208 11.3 32.2 0.00 2.84 2.84 86 1009.6
20260506070903 17 208 11.3 29.0 0.00 2.84 2.84 87 1009.6
20260506070803 17 207 11.3 29.0 0.00 2.84 2.84 87 1009.7
20260506070703 17 209 11.3 29.0 0.00 2.84 2.84 88 1009.6
20260506070503 17 210 11.3 25.7 0.00 2.84 2.84 86 1009.6
20260506070403 17 209 11.3 25.7 0.00 2.84 2.84 86 1009.6
20260506070303 17 210 9.7 25.7 0.00 2.87 2.84 86 1009.6
20260506070203 17 210 9.7 25.7 0.00 2.87 2.84 86 1009.6
20260506070103 17 213 9.7 25.7 0.00 2.87 2.84 87 1009.6
20260506062503 17 204 12.9 24.1 0.51 2.92 2.84 86 1009.6
20260506062403 17 205 12.9 25.7 0.56 2.92 2.84 86 1009.7
20260506062305 17 206 12.9 25.7 0.58 2.92 2.84 86 1009.7
20260506062203 17 205 12.9 35.4 0.61 2.92 2.84 86 1009.6
20260506062103 17 208 14.5 35.4 0.66 2.92 2.84 86 1009.6
20260506062003 17 212 14.5 35.4 0.71 2.92 2.84 86 1009.6
20260506061904 17 210 14.5 35.4 0.76 2.92 2.84 86 1009.6
20260506061803 17 210 14.5 35.4 0.79 2.92 2.84 86 1009.6
20260506061703 17 209 14.5 35.4 0.84 2.92 2.84 86 1009.5
20260506061603 17 210 14.5 35.4 0.91 2.92 2.84 86 1009.6
20260506061503 17 212 14.5 35.4 0.99 2.92 2.84 86 1009.6
20260506061403 17 214 14.5 35.4 1.22 2.92 2.84 86 1009.6
20260506061304 17 215 14.5 35.4 1.37 2.92 2.84 86 1009.6
20260506061203 17 216 12.9 29.0 1.47 2.92 2.84 86 1009.5
20260506061103 17 215 12.9 29.0 1.52 2.92 2.84 86 1009.5
20260506061003 17 216 12.9 32.2 1.60 2.92 2.84 86 1009.5
20260506060903 17 217 12.9 32.2 1.65 2.92 2.84 86 1009.5
20260506060803 17 218 12.9 32.2 1.65 2.92 2.84 86 1009.6
20260506060703 17 218 12.9 32.2 1.65 2.92 2.84 87 1009.5
20260506060603 17 219 12.9 32.2 1.65 2.92 2.84 86 1009.6
20260506060503 17 220 12.9 32.2 1.65 2.92 2.84 87 1009.3
20260506060403 17 219 12.9 32.2 1.65 2.92 2.84 87 1009.3
20260506060303 17 216 12.9 32.2 1.65 2.92 2.84 87 1009.3
20260506060203 17 214 12.9 33.8 1.65 2.92 2.84 87 1009.3
20260506051403 17 221 11.3 41.8 0.64 2.13 1.63 86 1009.9
20260506051303 17 225 11.3 19.3 0.51 2.01 1.52 87 1009.6
20260506051203 17 224 11.3 27.4 0.38 1.88 1.40 87 1009.4
20260506051103 17 221 11.3 27.4 0.33 1.85 1.32 87 1009.3
20260506051003 17 222 11.3 27.4 0.25 1.80 1.24 87 1009.3
20260506050903 17 223 11.3 27.4 0.23 1.75 1.19 87 1009.3
20260506050803 17 221 11.3 27.4 0.20 1.75 1.17 87 1009.2
20260506050703 17 221 11.3 27.4 0.20 1.75 1.17 87 1009.2
20260506050603 17 221 9.7 27.4 0.20 1.75 1.17 87 1009.2
20260506050504 17 218 9.7 27.4 0.20 1.78 1.17 87 1009.2
20260506050403 17 217 9.7 27.4 0.23 1.78 1.17 87 1009.2
20260506050303 17 218 9.7 27.4 0.23 1.80 1.17 87 1009.2
20260506050203 17 217 9.7 24.1 0.23 1.80 1.17 87 1009.1
20260506050103 17 219 9.7 24.1 0.23 1.83 1.17 88 1009.1
20260506045104 17 208 12.9 38.6 0.28 1.88 1.17 88 1009.2
20260506045003 17 207 12.9 38.6 0.25 1.88 1.14 88 1009.3
20260506044903 17 208 12.9 38.6 0.23 1.85 1.09 88 1009.4
20260506044803 17 209 12.9 38.6 0.20 1.83 1.09 88 1009.3
20260506044703 17 207 12.9 38.6 0.20 1.83 1.09 88 1009.3
20260506044603 17 205 12.9 38.6 0.23 1.85 1.09 88 1009.2
20260506044503 17 208 14.5 38.6 0.25 1.88 1.09 88 1009.2
20260506044403 17 212 14.5 30.6 0.33 1.85 1.07 88 1009.3
20260506044303 17 212 14.5 30.6 0.41 1.85 1.04 88 1009.3
20260506044203 17 211 14.5 30.6 0.41 1.85 1.02 88 1009.3
20260506044103 17 211 14.5 30.6 0.38 1.83 0.99 88 1009.3
20260506044003 17 209 16.1 30.6 0.38 1.88 0.99 88 1009.3
20260506043903 17 209 16.1 30.6 0.36 1.88 0.99 88 1009.3
20260506043703 17 212 16.1 30.6 0.36 1.91 0.99 88 1009.2
20260506043603 17 215 16.1 29.0 0.36 1.91 0.99 88 1009.1
20260506043503 17 217 14.5 32.2 0.36 1.93 0.99 88 1009.1
20260506043403 17 216 14.5 35.4 0.36 1.93 0.99 89 1009.2
20260506043303 17 218 14.5 35.4 0.36 1.93 0.99 89 1009.2
20260506043203 17 218 14.5 35.4 0.36 1.93 0.99 89 1009.2
20260506043103 17 217 12.9 35.4 0.36 1.93 0.99 88 1009.2
20260506043003 17 219 12.9 35.4 0.36 1.93 0.99 88 1009.1
20260506042903 17 218 12.9 35.4 0.36 1.96 0.99 88 1009.2
20260506042803 17 217 12.9 35.4 0.36 1.96 0.99 88 1009.1
20260506042703 17 217 12.9 35.4 0.36 1.96 0.99 88 1009.1
20260506042603 17 217 12.9 35.4 0.36 1.98 0.99 89 1009.1
20260506042503 17 213 12.9 35.4 0.36 1.98 0.99 89 1009.1
20260506042403 17 210 11.3 25.7 0.36 2.01 0.99 89 1009.2
20260506042305 17 209 11.3 25.7 0.36 2.01 0.99 89 1009.1
20260506042203 17 212 11.3 29.0 0.36 2.03 0.99 89 1009.2
20260506042103 17 214 11.3 29.0 0.36 2.03 0.99 89 1009.2
20260506042003 17 214 11.3 29.0 0.36 2.03 0.99 89 1009.2
20260506041903 17 216 11.3 29.0 0.36 2.06 0.99 89 1009.2
20260506041803 17 217 11.3 29.0 0.36 2.08 0.99 89 1009.1
20260506041703 17 216 9.7 29.0 0.36 2.08 0.99 89 1009.1
20260506041603 17 214 9.7 29.0 0.36 2.11 0.99 89 1009.1
20260506041503 17 215 9.7 29.0 0.38 2.11 0.99 89 1009.2
20260506041403 17 216 9.7 29.0 0.38 2.11 0.99 89 1009.1
20260506041303 17 216 8.0 29.0 0.38 2.11 0.99 89 1009.2
20260506041203 16 214 8.0 27.4 0.38 2.11 0.99 89 1009.1
20260506041103 16 213 8.0 27.4 0.38 2.11 0.99 89 1009.1
20260506041003 16 214 8.0 27.4 0.38 2.11 0.99 89 1009.2
20260506040903 16 212 8.0 27.4 0.38 2.11 0.99 89 1009.2
20260506040803 16 213 6.4 27.4 0.38 2.11 0.99 89 1009.2
20260506040703 16 213 6.4 27.4 0.38 2.11 0.99 89 1009.2
20260506040603 16 214 6.4 27.4 0.38 2.11 0.99 89 1009.2
20260506040503 16 213 6.4 25.7 0.38 2.11 0.99 89 1009.2
20260506040403 16 213 6.4 25.7 0.36 2.11 0.99 89 1009.2
20260506040304 16 210 6.4 19.3 0.36 2.11 0.97 89 1009.2
20260506040203 16 212 4.8 19.3 0.36 2.11 0.97 88 1009.2
20260506040003 16 208 4.8 19.3 0.36 2.11 0.97 88 1009.3
20260506035903 16 206 4.8 19.3 0.36 2.11 0.97 88 1009.3
20260506035803 16 203 4.8 19.3 0.36 2.11 0.97 88 1009.3
20260506035703 16 202 4.8 19.3 0.33 2.08 0.94 88 1009.4
20260506035603 16 201 4.8 19.3 0.30 2.03 0.89 89 1009.4
20260506035503 16 201 4.8 19.3 0.28 2.03 0.89 89 1009.4
20260506035403 16 205 4.8 17.7 0.28 2.03 0.89 89 1009.5
20260506035305 16 209 4.8 17.7 0.28 2.03 0.89 89 1009.5
20260506035203 16 208 4.8 17.7 0.28 2.03 0.89 90 1009.4
20260506035103 16 208 6.4 17.7 0.28 2.03 0.89 90 1009.4
20260506035004 16 212 6.4 17.7 0.28 2.06 0.89 89 1009.3
20260506034903 16 213 6.4 16.1 0.28 2.06 0.89 89 1009.3
20260506034804 16 217 6.4 16.1 0.28 2.06 0.89 89 1009.3
20260506034703 16 218 6.4 17.7 0.28 2.06 0.89 89 1009.3
20260506034603 16 217 6.4 17.7 0.25 2.03 0.86 89 1009.3
20260506034503 16 215 6.4 17.7 0.23 2.01 0.84 88 1009.4
20260506034403 16 212 6.4 17.7 0.13 1.93 0.71 88 1009.5
20260506034303 16 210 6.4 17.7 0.05 1.83 0.66 88 1009.6
20260506034203 16 210 6.4 19.3 0.03 1.83 0.61 88 1009.5
20260506034103 16 212 6.4 19.3 0.03 1.83 0.61 88 1009.4
20260506034003 16 209 8.0 19.3 0.03 1.85 0.61 88 1009.4
20260506033903 16 208 8.0 19.3 0.03 1.85 0.61 88 1009.4
20260506033803 16 206 8.0 19.3 0.03 1.85 0.61 88 1009.3
20260506033703 16 204 8.0 19.3 0.03 1.85 0.61 88 1009.4
20260506033603 16 202 8.0 24.1 0.03 1.85 0.61 87 1009.5
20260506033503 16 204 9.7 25.7 0.03 1.85 0.61 87 1009.5
20260506033403 16 204 9.7 25.7 0.03 1.85 0.61 87 1009.6
20260506033303 16 206 9.7 25.7 0.03 1.85 0.61 87 1009.6
20260506033203 16 205 9.7 25.7 0.03 1.85 0.61 87 1009.6
20260506033103 17 206 11.3 25.7 0.03 1.85 0.61 87 1009.7
20260506033004 16 207 11.3 25.7 0.03 1.85 0.61 87 1009.6
20260506032903 17 210 11.3 25.7 0.03 1.85 0.61 87 1009.6
20260506032803 17 208 12.9 29.0 0.03 1.85 0.61 87 1009.5
20260506032703 17 207 12.9 29.0 0.03 1.85 0.61 87 1009.4
20260506032603 17 212 12.9 29.0 0.03 1.85 0.61 87 1009.5
20260506032503 17 209 12.9 29.0 0.03 1.85 0.61 88 1009.4
20260506032403 17 208 12.9 29.0 0.03 1.85 0.61 88 1009.4
20260506032203 17 206 12.9 29.0 0.03 1.85 0.61 87 1009.5
20260506032103 17 204 12.9 29.0 0.03 1.85 0.61 87 1009.6
20260506032003 17 203 12.9 29.0 0.03 1.85 0.61 88 1009.6
20260506031903 17 204 12.9 29.0 0.03 1.85 0.61 88 1009.6
20260506031803 17 205 12.9 29.0 0.03 1.85 0.61 88 1009.6
20260506031703 17 206 12.9 29.0 0.03 1.85 0.61 88 1009.7
20260506031603 17 204 11.3 29.0 0.03 1.85 0.61 88 1009.7
20260506031503 17 203 12.9 29.0 0.00 1.83 0.61 88 1009.8
20260506031403 17 203 12.9 29.0 0.00 1.83 0.61 88 1009.8
20260506031303 17 206 11.3 29.0 0.00 1.83 0.61 89 1009.8
20260506031203 17 207 11.3 29.0 0.03 1.83 0.61 89 1009.8
20260506031103 17 207 11.3 29.0 0.03 1.83 0.61 89 1009.7
20260506031003 17 208 11.3 25.7 0.03 1.83 0.61 88 1009.8
20260506030903 17 204 11.3 25.7 0.03 1.83 0.61 88 1009.7
20260506030803 17 204 11.3 25.7 0.03 1.83 0.61 88 1009.7
20260506030703 17 203 11.3 25.7 0.03 1.83 0.61 88 1009.7
20260506030603 17 201 11.3 27.4 0.03 1.83 0.61 88 1009.7
20260506030503 17 204 11.3 27.4 0.03 1.83 0.61 88 1009.7
20260506030403 17 205 11.3 27.4 0.03 1.83 0.61 88 1009.8
20260506030303 17 204 11.3 27.4 0.03 1.83 0.61 88 1009.7
20260506030203 17 203 11.3 27.4 0.03 1.83 0.61 88 1009.7
20260506030103 16 205 11.3 27.4 0.03 1.83 0.61 88 1009.8
20260506030004 17 204 9.7 27.4 0.03 1.83 0.61 88 1009.8
20260506025903 17 203 9.7 27.4 0.03 1.83 0.61 88 1009.8
20260506025805 16 202 9.7 27.4 0.03 1.83 0.61 88 1009.9
20260506025703 16 204 9.7 27.4 0.05 1.83 0.61 88 1010.0
20260506025603 16 206 9.7 25.7 0.05 1.85 0.61 88 1009.7
20260506025503 16 204 8.0 22.5 0.05 1.85 0.61 88 1009.8
20260506025403 16 206 8.0 22.5 0.05 1.85 0.61 88 1009.7
20260506025305 16 206 8.0 24.1 0.05 1.85 0.61 88 1009.6
20260506025203 16 207 6.4 24.1 0.05 1.85 0.61 88 1009.6
20260506025103 16 206 6.4 24.1 0.05 1.85 0.61 88 1009.5
20260506025004 16 206 4.8 24.1 0.05 1.85 0.61 88 1009.6
20260506024903 16 207 4.8 24.1 0.08 1.85 0.61 88 1009.5
20260506024803 16 208 4.8 24.1 0.10 1.85 0.61 88 1009.4
20260506024703 16 208 3.2 24.1 0.15 1.85 0.61 88 1009.7
20260506024603 16 208 3.2 24.1 0.18 1.88 0.61 88 1009.6
20260506024503 16 209 3.2 24.1 0.18 1.88 0.61 88 1009.5
20260506024403 16 206 1.6 24.1 0.18 1.88 0.61 88 1009.6
20260506024303 16 205 1.6 16.1 0.18 1.88 0.61 88 1009.4
20260506024203 16 202 1.6 16.1 0.18 1.88 0.61 88 1009.6
20260506024103 16 198 1.6 16.1 0.18 1.91 0.61 88 1009.5
20260506024003 16 201 1.6 16.1 0.20 1.91 0.61 88 1009.6
20260506023903 16 205 1.6 9.7 0.20 1.91 0.61 88 1009.5
20260506023804 16 208 1.6 8.0 0.23 1.93 0.61 88 1009.5
20260506023703 16 217 1.6 8.0 0.25 1.93 0.61 88 1009.4
20260506023603 16 229 1.6 8.0 0.28 1.93 0.61 88 1009.4
20260506023503 16 228 1.6 12.9 0.30 1.93 0.61 89 1009.5
20260506023403 16 226 1.6 12.9 0.30 1.93 0.61 89 1009.4
20260506023303 16 236 1.6 12.9 0.30 1.93 0.61 88 1009.4
20260506023203 16 238 1.6 12.9 0.30 1.93 0.61 88 1009.4
20260506023103 16 238 1.6 12.9 0.30 1.93 0.61 88 1009.3
20260506023003 15 244 3.2 12.9 0.30 1.96 0.61 88 1009.3
20260506022903 15 275 3.2 12.9 0.30 1.96 0.61 89 1009.3
20260506022803 15 310 3.2 12.9 0.30 1.96 0.61 89 1009.2
20260506022703 15 323 3.2 12.9 0.30 1.98 0.61 89 1009.4
20260506022603 15 316 3.2 12.9 0.33 1.98 0.61 89 1009.4
20260506022503 15 330 3.2 12.9 0.36 1.98 0.61 89 1009.5
20260506022404 15 335 3.2 12.9 0.41 1.98 0.61 89 1009.5
20260506022305 15 336 3.2 12.9 0.43 2.01 0.61 89 1009.6
20260506022203 15 336 3.2 12.9 0.43 2.01 0.61 89 1009.6
20260506022103 15 336 3.2 12.9 0.43 2.03 0.61 89 1009.5
20260506022003 15 334 1.6 12.9 0.46 2.03 0.61 89 1009.6
20260506021903 15 334 1.6 14.5 0.48 2.03 0.61 89 1009.6
20260506021803 15 335 1.6 14.5 0.48 2.03 0.61 90 1009.6
20260506021703 15 336 1.6 14.5 0.48 2.03 0.61 89 1009.6
20260506021603 15 337 1.6 14.5 0.48 2.03 0.61 89 1009.5
20260506021503 15 339 1.6 14.5 0.48 2.03 0.61 90 1009.6
20260506021403 15 339 0.0 14.5 0.48 2.03 0.61 90 1009.6
20260506021303 15 339 0.0 14.5 0.48 2.03 0.61 90 1009.6
20260506021103 15 338 0.0 14.5 0.46 2.03 0.58 89 1009.6
20260506021003 15 337 0.0 14.5 0.46 2.03 0.58 90 1009.7
20260506020903 15 325 0.0 4.8 0.46 2.06 0.58 90 1009.8
20260506020803 15 288 0.0 6.4 0.46 2.06 0.58 91 1009.8
20260506020703 15 288 0.0 6.4 0.46 2.06 0.58 90 1009.8
20260506020603 15 288 1.6 6.4 0.46 2.06 0.58 90 1009.9
20260506020503 15 288 1.6 6.4 0.46 2.08 0.58 90 1009.9
20260506020404 15 288 1.6 6.4 0.46 2.08 0.58 91 1009.9
20260506020303 15 288 1.6 6.4 0.46 2.08 0.58 91 1009.8
20260506020203 15 288 1.6 6.4 0.46 2.11 0.58 91 1009.9
20260506020103 15 288 1.6 6.4 0.46 2.11 0.58 91 1010.0
20260506020003 15 288 1.6 6.4 0.46 2.11 0.58 90 1010.0
20260506015903 15 287 1.6 6.4 0.46 2.11 0.58 90 1010.0
20260506015803 15 287 1.6 6.4 0.46 2.11 0.58 91 1010.0
20260506015703 15 287 1.6 4.8 0.43 2.11 0.56 91 1010.1
20260506015603 15 287 1.6 4.8 0.43 2.11 0.56 91 1010.1
20260506015503 15 287 1.6 4.8 0.43 2.11 0.56 91 1010.1
20260506015403 15 287 1.6 4.8 0.43 2.13 0.56 91 1010.1
20260506015305 15 287 1.6 4.8 0.43 2.13 0.56 91 1010.1
20260506015203 15 287 1.6 4.8 0.43 2.13 0.56 91 1010.2
20260506015103 15 286 1.6 4.8 0.43 2.11 0.53 91 1010.2
20260506015003 15 281 1.6 3.2 0.43 2.13 0.53 90 1010.3
20260506014903 15 316 1.6 6.4 0.41 2.11 0.51 90 1010.4
20260506014803 15 303 1.6 8.0 0.38 2.11 0.51 91 1010.4
20260506014703 15 265 1.6 8.0 0.33 2.06 0.46 91 1010.4
20260506014603 15 255 1.6 8.0 0.30 2.03 0.43 91 1010.3
20260506014503 15 250 1.6 8.0 0.30 2.03 0.43 91 1010.3
20260506014403 15 249 1.6 8.0 0.30 2.03 0.43 91 1010.2
20260506014303 15 249 1.6 8.0 0.30 2.06 0.43 91 1010.2
20260506014203 15 249 1.6 8.0 0.30 2.06 0.43 91 1010.2
20260506014103 15 249 0.0 8.0 0.30 2.06 0.43 91 1010.2
20260506014003 15 249 0.0 8.0 0.28 2.03 0.41 91 1010.1
20260506013903 15 243 0.0 8.0 0.28 2.03 0.41 91 1010.0
20260506013803 15 232 0.0 8.0 0.25 2.03 0.38 91 1010.2
20260506013703 15 232 0.0 6.4 0.23 2.01 0.33 91 1010.2
20260506013603 15 0 0.0 4.8 0.20 1.98 0.33 91 1010.3
20260506013503 15 0 0.0 4.8 0.18 1.96 0.30 91 1010.4
20260506013403 15 0 0.0 0.0 0.18 1.96 0.30 91 1010.4
20260506013303 15 0 0.0 0.0 0.18 1.96 0.30 91 1010.4
20260506013203 15 0 0.0 3.2 0.18 1.96 0.30 91 1010.4
20260506013103 15 0 0.0 3.2 0.18 1.96 0.30 91 1010.4
20260506013003 15 0 0.0 3.2 0.18 1.98 0.30 91 1010.4
20260506012903 15 0 0.0 3.2 0.18 1.98 0.30 91 1010.5
20260506012803 15 0 0.0 3.2 0.18 1.98 0.30 91 1010.5
20260506012703 15 0 0.0 3.2 0.18 1.98 0.30 91 1010.5
20260506012603 15 0 0.0 3.2 0.15 1.96 0.28 91 1010.5
20260506012503 15 0 0.0 3.2 0.13 1.93 0.23 91 1010.5
20260506012403 15 0 0.0 3.2 0.08 1.91 0.20 91 1010.7
20260506012307 15 0 0.0 3.2 0.05 1.88 0.18 91 1010.8
20260506012203 15 0 0.0 1.6 0.05 1.88 0.15 91 1010.8
20260506012103 15 0 0.0 0.0 0.05 1.88 0.15 91 1010.7
20260506012003 15 0 0.0 0.0 0.03 1.85 0.15 91 1010.7
20260506011903 15 0 0.0 0.0 0.03 1.83 0.15 91 1010.6
20260506011803 15 0 0.0 0.0 0.03 1.83 0.13 91 1010.4
20260506011703 15 0 0.0 0.0 0.03 1.85 0.13 91 1010.4
20260506011603 15 0 0.0 0.0 0.03 1.85 0.13 91 1010.4
20260506011504 15 0 0.0 0.0 0.03 1.85 0.13 91 1010.5
20260506011403 15 0 0.0 0.0 0.03 1.85 0.13 91 1010.5
20260506011303 15 0 0.0 0.0 0.03 1.85 0.13 91 1010.5
20260506011203 15 0 0.0 0.0 0.03 1.85 0.13 91 1010.5
20260506011103 15 0 0.0 0.0 0.03 1.85 0.13 91 1010.5
20260506011003 15 0 0.0 0.0 0.03 1.85 0.13 91 1010.4
20260506010903 15 0 0.0 0.0 0.03 1.85 0.13 91 1010.5
20260506010803 15 0 0.0 0.0 0.03 1.88 0.13 91 1010.5
20260506010703 15 0 0.0 0.0 0.03 1.88 0.13 91 1010.5
20260506010603 15 0 0.0 0.0 0.03 1.88 0.13 91 1010.6
20260506010503 15 0 0.0 0.0 0.03 1.88 0.13 91 1010.5
20260506010403 15 0 0.0 0.0 0.03 1.88 0.13 91 1010.6
20260506010303 15 0 0.0 0.0 0.03 1.88 0.13 91 1010.6
20260506010203 15 0 0.0 0.0 0.03 1.88 0.13 91 1010.5
20260506010103 15 0 0.0 0.0 0.03 1.88 0.13 91 1010.5
20260506010003 15 0 0.0 0.0 0.03 1.88 0.13 91 1010.5
20260506005903 15 0 0.0 0.0 0.03 1.91 0.13 91 1010.5
20260506005803 15 0 0.0 0.0 0.03 1.91 0.13 91 1010.5
20260506005703 15 0 0.0 0.0 0.03 1.91 0.13 91 1010.5
20260506005603 15 0 0.0 0.0 0.03 1.91 0.13 91 1010.5
20260506005503 15 0 0.0 0.0 0.03 1.93 0.13 91 1010.6
20260506005403 15 0 0.0 0.0 0.05 1.93 0.13 91 1010.5
20260506005305 15 0 0.0 0.0 0.05 1.93 0.13 91 1010.5
20260506005203 15 0 0.0 0.0 0.05 1.93 0.13 91 1010.5
20260506005103 15 0 0.0 0.0 0.05 1.93 0.13 90 1010.5
20260506005003 16 0 0.0 0.0 0.05 1.93 0.13 90 1010.5
20260506004903 16 0 0.0 0.0 0.05 1.93 0.13 90 1010.6
20260506004803 16 0 0.0 0.0 0.05 1.93 0.13 90 1010.6
20260506004703 16 0 0.0 0.0 0.05 1.93 0.13 90 1010.6
20260506004604 16 0 0.0 0.0 0.05 1.93 0.13 90 1010.6
20260506004503 16 0 0.0 0.0 0.05 1.93 0.13 91 1010.6
20260506004403 16 0 0.0 0.0 0.05 1.93 0.13 91 1010.6
20260506004303 16 0 0.0 0.0 0.05 1.93 0.13 90 1010.7
20260506004203 16 0 0.0 0.0 0.05 1.93 0.13 90 1010.8
20260506004103 16 0 0.0 0.0 0.05 1.93 0.13 90 1010.8
20260506004003 16 0 0.0 0.0 0.05 1.93 0.13 90 1010.8
20260506003903 16 0 0.0 0.0 0.05 1.93 0.13 90 1010.9
20260506003803 16 0 0.0 0.0 0.05 1.93 0.13 90 1010.9
20260506003703 16 0 0.0 0.0 0.05 1.93 0.13 90 1011.0
20260506003603 16 0 0.0 0.0 0.08 1.93 0.13 90 1011.0
20260506003503 16 0 0.0 0.0 0.08 1.93 0.13 90 1011.0
20260506003403 16 0 0.0 0.0 0.08 1.93 0.13 90 1011.0
20260506003303 16 0 0.0 0.0 0.08 1.93 0.13 90 1011.0
20260506003203 16 0 0.0 0.0 0.08 1.93 0.13 90 1011.0
20260506003103 16 0 0.0 0.0 0.08 1.93 0.13 90 1011.0
20260506003003 16 0 0.0 0.0 0.08 1.93 0.13 90 1011.0
20260506002903 16 0 0.0 0.0 0.08 1.93 0.13 90 1011.0
20260506002803 16 0 0.0 0.0 0.08 1.93 0.13 90 1010.9
20260506002704 16 0 0.0 0.0 0.08 1.93 0.13 90 1010.9
20260506002603 16 0 0.0 0.0 0.08 1.93 0.13 90 1010.8
20260506002503 16 0 0.0 0.0 0.08 1.93 0.13 90 1010.9
20260506002403 16 0 0.0 0.0 0.08 1.93 0.13 90 1010.9
20260506002305 16 0 1.6 0.0 0.08 1.93 0.13 89 1010.9
20260506002203 16 232 1.6 3.2 0.10 1.93 0.13 89 1010.9
20260506002103 16 232 1.6 6.4 0.10 1.93 0.13 89 1011.0
20260506002003 16 230 1.6 6.4 0.10 1.93 0.13 89 1011.0
20260506001903 16 230 1.6 6.4 0.08 1.93 0.10 89 1011.0
20260506001803 16 226 1.6 6.4 0.08 1.93 0.10 89 1010.9
20260506001703 16 221 1.6 6.4 0.08 1.93 0.10 89 1010.9
20260506001603 16 220 1.6 6.4 0.08 1.93 0.10 89 1010.9
20260506001503 16 217 1.6 6.4 0.08 1.93 0.10 89 1010.9
20260506001403 16 217 1.6 6.4 0.08 1.93 0.10 89 1010.9
20260506001303 16 217 1.6 6.4 0.08 1.93 0.10 89 1010.9
20260506001203 16 215 3.2 6.4 0.10 1.93 0.10 89 1011.0
20260506001103 16 210 3.2 4.8 0.10 1.93 0.10 89 1011.0
20260506001003 16 206 3.2 4.8 0.10 1.93 0.10 89 1011.0
20260506000903 16 206 4.8 4.8 0.10 1.93 0.10 89 1011.1
20260506000803 16 206 4.8 6.4 0.10 1.93 0.10 89 1011.0
20260506000703 16 210 6.4 11.3 0.10 1.93 0.10 89 1011.0
20260506000603 16 215 6.4 12.9 0.10 1.93 0.10 89 1011.0
20260506000503 16 216 6.4 12.9 0.10 1.93 0.10 89 1011.0
20260506000403 16 217 8.0 12.9 0.10 1.93 0.10 89 1010.9
20260506000303 16 215 8.0 12.9 0.10 1.93 0.10 89 1010.9
20260506000204 16 216 8.0 12.9 0.10 1.93 0.10 89 1010.9
20260506000103 16 218 9.7 14.5 0.10 1.93 0.10 89 1010.9
20260506000004 16 220 9.7 14.5 0.10 1.93 0.10 89 1011.0
20260505235903 16 222 9.7 24.1 0.10 1.93 0.10 89 1011.1
20260505235803 16 222 9.7 24.1 0.10 1.93 0.10 89 1011.1
20260505235704 16 221 9.7 24.1 0.10 1.93 0.10 90 1011.1
20260505235603 16 221 9.7 24.1 0.10 1.93 0.10 90 1011.2
20260505235503 16 221 9.7 24.1 0.10 1.93 0.10 90 1011.3
20260505235404 16 222 9.7 24.1 0.08 1.91 0.08 90 1011.3
20260505235305 16 223 11.3 24.1 0.08 1.91 0.08 90 1011.3
20260505235203 16 224 11.3 24.1 0.08 1.91 0.08 90 1011.3
20260505235103 16 224 11.3 24.1 0.08 1.91 0.08 90 1011.3
20260505235003 16 222 9.7 24.1 0.08 1.91 0.08 90 1011.3
20260505234903 16 222 9.7 22.5 0.05 1.88 0.05 90 1011.3
20260505234803 16 221 9.7 22.5 0.05 1.88 0.05 90 1011.4
20260505234703 16 221 9.7 22.5 0.05 1.88 0.05 90 1011.4
20260505234603 16 221 9.7 22.5 0.05 1.88 0.05 90 1011.4
20260505234503 16 220 9.7 22.5 0.05 1.88 0.05 90 1011.4
20260505234403 16 220 8.0 22.5 0.05 1.88 0.05 90 1011.3
20260505234303 16 218 8.0 22.5 0.05 1.88 0.05 90 1011.4
20260505234203 16 215 6.4 22.5 0.05 1.88 0.05 90 1011.3
20260505234103 16 213 4.8 22.5 0.05 1.88 0.05 90 1011.3
20260505234003 16 212 4.8 22.5 0.05 1.88 0.05 90 1011.4
20260505233903 16 211 3.2 22.5 0.05 1.88 0.05 90 1011.3
20260505233803 16 211 3.2 22.5 0.05 1.88 0.05 90 1011.3
20260505233703 16 210 1.6 22.5 0.05 1.88 0.05 91 1011.3
20260505233603 16 209 1.6 22.5 0.05 1.85 0.05 91 1011.3
20260505233503 16 208 1.6 22.5 0.05 1.85 0.05 91 1011.4
20260505233403 17 206 0.0 20.9 0.05 1.85 0.05 91 1011.3
20260505233303 16 206 0.0 20.9 0.05 1.85 0.05 92 1011.4
20260505233203 16 211 0.0 20.9 0.05 1.85 0.05 92 1011.3
20260505233103 16 0 0.0 14.5 0.05 1.85 0.05 92 1011.3
20260505233003 16 0 0.0 14.5 0.05 1.85 0.05 92 1011.3
20260505232903 16 0 0.0 14.5 0.05 1.85 0.05 92 1011.3
20260505232803 16 0 0.0 14.5 0.05 1.85 0.05 92 1011.3
20260505232703 16 0 0.0 14.5 0.05 1.85 0.05 92 1011.3
20260505232603 16 0 0.0 14.5 0.05 1.85 0.05 91 1011.3
20260505232503 16 0 0.0 14.5 0.05 1.85 0.05 91 1011.3
20260505232403 16 0 0.0 0.0 0.05 1.85 0.05 90 1011.4
20260505232305 16 0 0.0 0.0 0.05 1.85 0.05 90 1011.3
20260505232203 16 0 0.0 0.0 0.03 1.83 0.03 90 1011.5
20260505232103 16 0 0.0 0.0 0.03 1.83 0.03 90 1011.4
20260505232003 16 0 0.0 0.0 0.03 1.83 0.03 91 1011.4
20260505231903 15 0 0.0 0.0 0.03 1.83 0.03 90 1011.4
20260505231803 15 0 0.0 0.0 0.03 1.83 0.03 90 1011.3
20260505231703 15 0 0.0 0.0 0.03 1.83 0.03 90 1011.4
20260505231603 15 0 0.0 0.0 0.03 1.83 0.03 90 1011.4
20260505231503 15 0 0.0 0.0 0.03 1.83 0.03 90 1011.5
20260505231403 15 0 0.0 0.0 0.03 1.83 0.03 90 1011.6
20260505231003 15 0 0.0 0.0 0.00 1.83 0.00 89 1011.7
20260505230903 15 0 0.0 0.0 0.00 1.83 0.00 89 1011.8
20260505230803 15 0 0.0 0.0 0.00 1.83 0.00 89 1011.8
20260505230703 15 0 0.0 0.0 0.00 1.83 0.00 89 1011.8
20260505230604 15 0 0.0 0.0 0.00 1.83 0.00 89 1011.8
20260505230503 15 0 0.0 0.0 0.00 1.83 0.00 89 1011.8
20260505230403 15 0 0.0 0.0 0.00 1.83 0.00 89 1011.9
20260505230303 15 0 0.0 0.0 0.00 1.83 0.00 89 1011.9
20260505230203 15 0 0.0 0.0 0.00 1.83 0.00 89 1011.9
20260505230108 15 0 0.0 0.0 0.00 1.83 0.00 89 1011.9
20260505230003 15 0 0.0 0.0 0.00 1.83 0.00 89 1011.9
20260505225903 15 0 0.0 0.0 0.00 1.83 0.00 89 1011.9
20260505225803 15 0 0.0 0.0 0.00 1.83 0.00 89 1011.9
20260505225704 15 0 0.0 0.0 0.00 1.83 0.00 89 1011.9
20260505225603 15 0 0.0 0.0 0.00 1.83 0.00 89 1012.0
20260505225504 15 0 0.0 0.0 0.00 1.83 0.00 89 1012.0
20260505225403 15 0 0.0 0.0 0.00 1.83 0.00 89 1012.0
20260505225305 15 0 0.0 0.0 0.00 1.83 0.00 88 1012.0
20260505225203 15 0 0.0 0.0 0.00 1.83 0.00 88 1011.9
20260505225103 15 0 0.0 0.0 0.00 1.83 0.00 88 1011.9
20260505225003 15 0 0.0 0.0 0.00 1.83 0.00 88 1011.9
20260505224903 15 0 0.0 0.0 0.00 1.83 0.00 88 1012.0
20260505224803 15 0 0.0 0.0 0.00 1.83 0.00 88 1012.1
20260505224703 15 0 0.0 0.0 0.00 1.83 0.00 89 1012.1
20260505224603 15 0 0.0 0.0 0.00 1.83 0.00 88 1012.2
20260505224503 15 0 0.0 0.0 0.00 1.83 0.00 88 1012.2
20260505224403 15 0 0.0 0.0 0.00 1.83 0.00 89 1012.2
20260505224303 15 0 0.0 0.0 0.00 1.83 0.00 89 1012.2
20260505224203 15 0 0.0 0.0 0.00 1.83 0.00 89 1012.2
20260505224103 15 0 0.0 0.0 0.00 1.83 0.00 89 1012.2
20260505224003 15 0 0.0 0.0 0.00 1.83 0.00 89 1012.3
20260505223903 15 0 0.0 0.0 0.00 1.83 0.00 89 1012.3
20260505223803 15 0 0.0 0.0 0.00 1.83 0.00 89 1012.3
20260505223703 15 0 0.0 0.0 0.00 1.83 0.00 89 1012.3
20260505223603 15 0 0.0 0.0 0.00 1.83 0.00 89 1012.4
20260505223503 15 0 0.0 0.0 0.00 1.83 0.00 89 1012.4
20260505223403 15 0 0.0 0.0 0.00 1.83 0.00 89 1012.4
20260505223303 15 0 0.0 0.0 0.00 1.83 0.00 89 1012.4
20260505223203 15 0 0.0 0.0 0.00 1.83 0.00 89 1012.4
20260505223103 15 0 0.0 0.0 0.00 1.83 0.00 89 1012.4
20260505223003 15 0 0.0 0.0 0.00 1.83 0.00 89 1012.3
20260505222904 15 0 0.0 0.0 0.00 1.83 0.00 89 1012.4
20260505222803 15 0 0.0 0.0 0.00 1.83 0.00 89 1012.4
20260505222703 15 0 0.0 0.0 0.00 1.83 0.00 89 1012.4
20260505222603 15 0 0.0 0.0 0.00 1.83 0.00 89 1012.4
20260505222506 15 0 0.0 0.0 0.00 1.83 0.00 89 1012.5
20260505222403 15 0 0.0 0.0 0.00 1.83 0.00 89 1012.5
20260505222305 15 0 0.0 0.0 0.00 1.83 0.00 89 1012.5
20260505222203 15 0 0.0 0.0 0.00 1.83 0.00 89 1012.5
20260505222103 15 0 0.0 0.0 0.00 1.83 0.00 89 1012.5
20260505222003 15 0 0.0 0.0 0.00 1.83 0.00 89 1012.5
20260505221903 15 0 0.0 0.0 0.00 1.83 0.00 89 1012.5
20260505221803 15 0 0.0 0.0 0.00 1.83 0.00 89 1012.5
20260505221703 15 0 0.0 0.0 0.00 1.83 0.00 89 1012.5
20260505221603 15 0 0.0 0.0 0.00 1.83 0.00 89 1012.5
20260505221504 15 0 0.0 0.0 0.00 1.83 0.00 89 1012.5
20260505221403 15 0 0.0 0.0 0.00 1.83 0.00 89 1012.6
20260505221303 15 0 0.0 0.0 0.00 1.83 0.00 89 1012.6
20260505221203 15 0 0.0 0.0 0.00 1.83 0.00 89 1012.6
20260505221103 15 0 0.0 0.0 0.00 1.83 0.00 89 1012.5
20260505221003 15 0 0.0 0.0 0.00 1.83 0.00 89 1012.5
20260505220903 15 0 0.0 0.0 0.00 1.83 0.00 89 1012.5
20260505220803 15 0 0.0 0.0 0.00 1.83 0.00 89 1012.5
20260505220703 15 0 0.0 0.0 0.00 1.83 0.00 89 1012.5
20260505220603 15 0 0.0 0.0 0.00 1.83 0.00 89 1012.5
20260505220503 15 0 0.0 0.0 0.00 1.83 0.00 89 1012.5
20260505220403 15 0 0.0 0.0 0.00 1.83 0.00 89 1012.5
20260505220303 15 0 0.0 0.0 0.00 1.83 0.00 89 1012.5
20260505220203 15 0 0.0 0.0 0.00 1.83 0.00 89 1012.4
20260505220103 15 0 0.0 0.0 0.00 1.83 0.00 89 1012.5
20260505220021 15 0 0.0 0.0 0.00 1.83 0.00 89 1012.4
20260505215903 15 0 0.0 0.0 0.00 1.83 1.83 89 1012.4
20260505215803 15 0 0.0 0.0 0.00 1.83 1.83 89 1012.4
20260505215703 15 0 0.0 0.0 0.00 1.83 1.83 89 1012.4
20260505215603 15 0 0.0 0.0 0.00 1.83 1.83 89 1012.4
20260505215503 14 0 0.0 0.0 0.00 1.83 1.83 89 1012.4
20260505215403 14 0 0.0 0.0 0.00 1.83 1.83 89 1012.5
20260505215305 14 0 0.0 0.0 0.00 1.83 1.83 89 1012.4
20260505215203 14 0 0.0 0.0 0.00 1.83 1.83 89 1012.5
20260505215103 14 0 0.0 0.0 0.00 1.83 1.83 89 1012.5
20260505215003 14 0 0.0 0.0 0.00 1.83 1.83 89 1012.6
20260505214903 14 0 0.0 0.0 0.00 1.83 1.83 89 1012.6
20260505214803 14 0 0.0 0.0 0.00 1.83 1.83 89 1012.5
20260505214703 14 0 0.0 0.0 0.00 1.83 1.83 89 1012.5
20260505214603 14 0 0.0 0.0 0.00 1.83 1.83 89 1012.6
20260505214503 14 0 0.0 0.0 0.00 1.83 1.83 89 1012.6
20260505214403 14 0 0.0 0.0 0.00 1.83 1.83 89 1012.6
20260505214303 14 0 0.0 0.0 0.00 1.83 1.83 89 1012.6
20260505214203 14 0 0.0 0.0 0.00 1.83 1.83 89 1012.6
20260505214103 14 0 0.0 0.0 0.00 1.83 1.83 89 1012.6
20260505214003 14 0 0.0 0.0 0.00 1.83 1.83 89 1012.5
20260505213904 14 0 0.0 0.0 0.00 1.83 1.83 89 1012.6
20260505213803 14 0 0.0 0.0 0.00 1.83 1.83 89 1012.7
20260505213703 14 0 0.0 0.0 0.00 1.83 1.83 89 1012.7
20260505213603 14 0 0.0 0.0 0.00 1.83 1.83 89 1012.7
20260505213503 14 0 0.0 0.0 0.00 1.83 1.83 89 1012.7
20260505213403 14 0 0.0 0.0 0.00 1.83 1.83 89 1012.8
20260505213303 14 0 0.0 0.0 0.00 1.83 1.83 89 1012.8
20260505213203 14 0 0.0 0.0 0.00 1.83 1.83 89 1012.8
20260505213103 14 0 0.0 0.0 0.00 1.83 1.83 89 1012.8
20260505213003 14 0 0.0 0.0 0.00 1.83 1.83 89 1012.8
20260505212903 14 0 0.0 0.0 0.00 1.83 1.83 89 1012.8
20260505212803 14 0 0.0 0.0 0.00 1.83 1.83 89 1012.9
20260505212703 14 0 0.0 0.0 0.00 1.83 1.83 89 1012.8
20260505212603 14 0 0.0 0.0 0.00 1.83 1.83 89 1012.9
20260505212503 14 0 0.0 0.0 0.00 1.83 1.83 89 1012.8
20260505212403 15 0 0.0 0.0 0.00 1.83 1.83 89 1012.8
20260505212305 15 0 0.0 0.0 0.00 1.83 1.83 89 1012.8
20260505212203 15 0 0.0 0.0 0.00 1.83 1.83 89 1012.9
20260505212103 15 0 0.0 0.0 0.00 1.83 1.83 89 1012.9
20260505212003 15 0 0.0 0.0 0.00 1.83 1.83 89 1012.9
20260505211903 15 0 0.0 0.0 0.00 1.83 1.83 89 1012.8
20260505211803 15 0 0.0 0.0 0.00 1.83 1.83 89 1012.8
20260505211703 15 0 0.0 0.0 0.00 1.83 1.83 89 1012.8
20260505211603 15 0 0.0 0.0 0.00 1.83 1.83 89 1012.8
20260505211504 15 0 0.0 0.0 0.00 1.83 1.83 89 1012.8
20260505211403 15 0 0.0 0.0 0.00 1.83 1.83 89 1012.8
20260505211303 15 0 0.0 0.0 0.00 1.83 1.83 89 1012.8
20260505211203 15 0 0.0 0.0 0.00 1.83 1.83 89 1012.8
20260505211103 15 0 0.0 0.0 0.00 1.83 1.83 89 1012.9
20260505211003 15 0 0.0 0.0 0.00 1.83 1.83 89 1012.8
20260505210903 15 0 0.0 0.0 0.00 1.83 1.83 89 1012.8
20260505210803 15 0 0.0 0.0 0.00 1.83 1.83 89 1012.8
20260505210703 15 0 0.0 0.0 0.00 1.83 1.83 89 1012.8
20260505210603 15 0 0.0 0.0 0.00 1.83 1.83 89 1012.8
20260505210503 15 0 0.0 0.0 0.00 1.83 1.83 89 1012.7
20260505210403 15 0 0.0 0.0 0.00 1.83 1.83 89 1012.8
20260505210303 15 0 0.0 0.0 0.00 1.83 1.83 89 1012.8
20260505210203 14 0 0.0 0.0 0.00 1.83 1.83 89 1012.8
20260505210103 14 0 0.0 0.0 0.00 1.83 1.83 89 1012.8
20260505210003 14 0 0.0 0.0 0.00 1.83 1.83 89 1012.9
20260505205903 14 0 0.0 0.0 0.00 1.83 1.83 89 1012.9
20260505205803 14 0 0.0 0.0 0.00 1.83 1.83 89 1012.9
20260505205703 14 0 0.0 0.0 0.00 1.83 1.83 89 1012.9
20260505205603 14 0 0.0 0.0 0.00 1.83 1.83 89 1012.9
20260505205503 14 0 0.0 0.0 0.00 1.83 1.83 89 1012.9
20260505205403 14 0 0.0 0.0 0.00 1.83 1.83 89 1013.0
20260505205305 14 0 0.0 0.0 0.00 1.83 1.83 89 1013.0
20260505205203 14 0 0.0 0.0 0.00 1.83 1.83 89 1013.0
20260505205103 14 0 0.0 0.0 0.00 1.83 1.83 89 1013.0
20260505205003 14 0 0.0 0.0 0.00 1.83 1.83 89 1013.0
20260505204903 14 0 0.0 0.0 0.00 1.83 1.83 89 1013.0
20260505204803 14 0 0.0 0.0 0.00 1.83 1.83 89 1013.0
20260505204703 14 0 0.0 0.0 0.00 1.83 1.83 89 1013.0
20260505204603 14 0 0.0 0.0 0.00 1.83 1.83 89 1013.1
20260505204503 14 0 0.0 0.0 0.00 1.83 1.83 88 1013.1
20260505204403 14 0 0.0 0.0 0.00 1.83 1.83 88 1013.2
20260505204303 14 0 0.0 0.0 0.00 1.83 1.83 89 1013.2
20260505204203 14 0 0.0 0.0 0.00 1.83 1.83 89 1013.1
20260505204103 14 0 0.0 0.0 0.00 1.83 1.83 89 1013.2
20260505204003 14 0 0.0 0.0 0.00 1.83 1.83 89 1013.2
20260505203903 14 0 0.0 0.0 0.00 1.83 1.83 89 1013.2
20260505203803 14 0 0.0 0.0 0.00 1.83 1.83 89 1013.2
20260505203703 14 0 0.0 0.0 0.00 1.83 1.83 89 1013.2
20260505203603 14 0 0.0 0.0 0.00 1.83 1.83 89 1013.2
20260505203503 14 0 0.0 0.0 0.00 1.83 1.83 89 1013.2
20260505203403 14 0 0.0 0.0 0.00 1.83 1.83 89 1013.1
20260505203303 14 0 0.0 0.0 0.00 1.83 1.83 89 1013.1
20260505203203 14 0 0.0 0.0 0.00 1.83 1.83 89 1013.2
20260505203103 14 0 0.0 0.0 0.00 1.83 1.83 89 1013.2
20260505203003 14 0 0.0 0.0 0.00 1.83 1.83 89 1013.2
20260505202903 14 0 0.0 0.0 0.00 1.83 1.83 89 1013.2
20260505202803 14 0 0.0 0.0 0.00 1.83 1.83 89 1013.2
20260505202703 14 0 0.0 0.0 0.00 1.83 1.83 89 1013.2
20260505202603 14 0 0.0 0.0 0.00 1.83 1.83 89 1013.2
20260505202503 14 0 0.0 0.0 0.00 1.83 1.83 89 1013.2
20260505202403 14 0 0.0 0.0 0.00 1.83 1.83 89 1013.2
20260505202306 14 0 0.0 0.0 0.00 1.83 1.83 88 1013.2
20260505202203 14 0 0.0 0.0 0.00 1.83 1.83 88 1013.2
20260505202103 14 0 0.0 0.0 0.00 1.83 1.83 88 1013.2
20260505202004 14 0 0.0 0.0 0.00 1.83 1.83 88 1013.2
20260505201903 14 0 0.0 0.0 0.00 1.83 1.83 88 1013.2
20260505201803 14 0 0.0 0.0 0.00 1.83 1.83 88 1013.3
20260505201703 14 0 0.0 0.0 0.00 1.83 1.83 88 1013.3
20260505201603 14 0 0.0 0.0 0.00 1.83 1.83 88 1013.3
20260505201503 14 0 0.0 0.0 0.00 1.83 1.83 88 1013.3
20260505201403 14 0 0.0 0.0 0.00 1.83 1.83 88 1013.3
20260505201303 14 0 0.0 0.0 0.00 1.83 1.83 88 1013.3
20260505201203 14 0 0.0 0.0 0.00 1.83 1.83 88 1013.3
20260505201103 14 0 0.0 0.0 0.00 1.83 1.83 88 1013.3
20260505201003 14 0 0.0 0.0 0.00 1.83 1.83 88 1013.3
20260505200903 14 0 0.0 0.0 0.00 1.83 1.83 88 1013.3
20260505200803 14 0 0.0 0.0 0.00 1.83 1.83 88 1013.4
20260505200703 14 0 0.0 0.0 0.00 1.83 1.83 88 1013.4
20260505200603 14 0 0.0 0.0 0.00 1.83 1.83 88 1013.3
20260505200503 14 0 0.0 0.0 0.00 1.83 1.83 88 1013.3
20260505200403 14 0 0.0 0.0 0.00 1.83 1.83 88 1013.3
20260505200303 14 0 0.0 0.0 0.00 1.83 1.83 88 1013.3
20260505200203 14 0 0.0 0.0 0.00 1.83 1.83 88 1013.3
20260505200103 14 0 0.0 0.0 0.00 1.83 1.83 88 1013.3
20260505200004 15 0 0.0 0.0 0.00 1.83 1.83 88 1013.3
20260505195903 15 0 0.0 0.0 0.00 1.83 1.83 88 1013.3
20260505195803 15 0 0.0 0.0 0.00 1.83 1.83 88 1013.4
20260505195703 15 0 0.0 0.0 0.00 1.83 1.83 88 1013.3
20260505195603 15 0 0.0 0.0 0.00 1.83 1.83 88 1013.3
20260505195503 15 0 0.0 0.0 0.00 1.83 1.83 88 1013.3
20260505195403 15 0 0.0 0.0 0.00 1.83 1.83 88 1013.3
20260505195305 15 0 0.0 0.0 0.00 1.83 1.83 88 1013.3
20260505195203 15 0 0.0 0.0 0.00 1.83 1.83 88 1013.3
20260505195103 15 0 0.0 0.0 0.00 1.83 1.83 88 1013.3
20260505195003 15 0 0.0 0.0 0.00 1.83 1.83 88 1013.3
20260505194903 15 0 0.0 0.0 0.00 1.83 1.83 88 1013.2
20260505194803 15 0 0.0 0.0 0.00 1.83 1.83 88 1013.3
20260505194703 15 0 0.0 0.0 0.00 1.83 1.83 88 1013.2
20260505194603 15 0 0.0 0.0 0.00 1.83 1.83 88 1013.2
20260505194503 15 0 0.0 0.0 0.00 1.83 1.83 88 1013.2
20260505194403 15 0 0.0 0.0 0.00 1.83 1.83 88 1013.2
20260505194303 15 0 0.0 0.0 0.00 1.83 1.83 88 1013.2
20260505194203 15 0 0.0 0.0 0.00 1.83 1.83 88 1013.2
20260505194103 15 0 0.0 0.0 0.00 1.83 1.83 88 1013.2
20260505194003 15 0 0.0 0.0 0.00 1.83 1.83 87 1013.2
20260505193903 15 0 0.0 0.0 0.00 1.83 1.83 88 1013.2
20260505193803 15 0 0.0 0.0 0.00 1.83 1.83 88 1013.2
20260505193703 15 0 0.0 0.0 0.00 1.83 1.83 87 1013.2
20260505193603 15 0 0.0 0.0 0.00 1.83 1.83 87 1013.2
20260505193503 15 0 0.0 0.0 0.00 1.83 1.83 87 1013.1
20260505193403 15 0 0.0 0.0 0.00 1.83 1.83 87 1013.2
20260505193303 15 0 0.0 0.0 0.00 1.83 1.83 87 1013.2
20260505193203 15 0 0.0 0.0 0.00 1.83 1.83 87 1013.1
20260505193104 15 0 0.0 0.0 0.00 1.83 1.83 87 1013.1
20260505193003 15 0 0.0 0.0 0.00 1.83 1.83 87 1013.1
20260505192903 15 0 0.0 0.0 0.00 1.83 1.83 87 1013.1
20260505192803 15 0 0.0 0.0 0.00 1.83 1.83 87 1013.0
20260505192703 15 0 0.0 0.0 0.00 1.83 1.83 87 1013.0
20260505192603 15 0 0.0 0.0 0.00 1.83 1.83 87 1013.1
20260505192504 15 0 0.0 0.0 0.00 1.83 1.83 87 1013.0
20260505192403 15 0 0.0 0.0 0.00 1.83 1.83 87 1013.0
20260505192305 15 0 0.0 0.0 0.00 1.83 1.83 87 1013.0
20260505192203 15 0 0.0 0.0 0.00 1.83 1.83 87 1013.0
20260505192103 15 0 0.0 0.0 0.00 1.83 1.83 87 1013.0
20260505192003 15 0 0.0 0.0 0.00 1.83 1.83 87 1013.0
20260505191903 15 0 0.0 0.0 0.00 1.83 1.83 87 1013.0
20260505191803 15 0 0.0 0.0 0.00 1.83 1.83 87 1013.0
20260505191703 16 0 0.0 0.0 0.00 1.83 1.83 86 1013.0
20260505191603 16 0 0.0 0.0 0.00 1.83 1.83 86 1013.0
20260505191503 16 0 0.0 0.0 0.00 1.83 1.83 86 1013.0
20260505191403 16 0 0.0 0.0 0.00 1.83 1.83 86 1013.0
20260505191315 16 0 0.0 0.0 0.00 1.83 1.83 86 1013.0
20260505191203 16 0 0.0 0.0 0.00 1.83 1.83 86 1013.0
20260505191103 16 0 0.0 0.0 0.00 1.83 1.83 86 1013.0
20260505191003 16 0 0.0 0.0 0.00 1.83 1.83 86 1013.0
20260505190903 16 0 0.0 0.0 0.00 1.83 1.83 86 1013.0
20260505190803 16 0 0.0 0.0 0.00 1.83 1.83 86 1013.0
20260505190703 16 0 0.0 0.0 0.00 1.83 1.83 86 1013.0
20260505190603 16 0 0.0 0.0 0.00 1.83 1.83 86 1013.0
20260505190503 16 0 0.0 0.0 0.00 1.83 1.83 86 1012.9
20260505190404 16 0 0.0 0.0 0.00 1.83 1.83 86 1013.0
20260505190303 16 0 0.0 0.0 0.00 1.83 1.83 86 1012.9
20260505190204 16 0 0.0 0.0 0.00 1.83 1.83 85 1012.9
20260505190103 16 0 0.0 0.0 0.00 1.83 1.83 86 1012.9
20260505190003 16 0 0.0 0.0 0.00 1.83 1.83 85 1012.9
20260505185903 16 0 0.0 0.0 0.00 1.83 1.83 85 1012.9
20260505185803 16 0 0.0 0.0 0.00 1.83 1.83 85 1012.9
20260505185703 16 0 0.0 0.0 0.00 1.83 1.83 85 1012.9
20260505185603 16 0 0.0 0.0 0.00 1.83 1.83 85 1012.9
20260505185503 16 0 0.0 0.0 0.00 1.83 1.83 85 1012.8
20260505185403 16 0 0.0 0.0 0.00 1.83 1.83 85 1012.8
20260505185305 16 0 0.0 0.0 0.00 1.83 1.83 85 1012.9
20260505185203 16 0 0.0 0.0 0.00 1.83 1.83 85 1012.9
20260505185103 16 0 0.0 0.0 0.00 1.83 1.83 85 1012.8
20260505185003 16 0 0.0 0.0 0.00 1.83 1.83 84 1012.9
20260505184903 16 0 0.0 0.0 0.00 1.83 1.83 84 1012.8
20260505184803 16 0 0.0 0.0 0.00 1.83 1.83 84 1012.8
20260505184703 16 0 0.0 0.0 0.00 1.83 1.83 84 1012.8
20260505184603 17 0 0.0 0.0 0.00 1.83 1.83 84 1012.8
20260505184503 17 0 0.0 0.0 0.00 1.83 1.83 83 1012.8
20260505184403 17 0 0.0 0.0 0.00 1.83 1.83 83 1012.8
20260505184303 17 0 0.0 0.0 0.00 1.83 1.83 83 1012.8
20260505184204 17 0 0.0 0.0 0.00 1.83 1.83 83 1012.8
20260505184103 17 0 0.0 0.0 0.00 1.83 1.83 83 1012.8
20260505184003 17 0 0.0 0.0 0.00 1.83 1.83 82 1012.9
20260505183903 17 0 0.0 0.0 0.00 1.83 1.83 82 1012.9
20260505183803 17 0 0.0 0.0 0.00 1.83 1.83 82 1012.9
20260505183703 17 0 0.0 0.0 0.00 1.83 1.83 82 1012.9
20260505183603 17 0 0.0 0.0 0.00 1.83 1.83 81 1013.0
20260505183503 17 0 0.0 0.0 0.00 1.83 1.83 81 1013.0
20260505183403 17 0 0.0 0.0 0.00 1.83 1.83 81 1013.0
20260505183303 17 0 0.0 0.0 0.00 1.83 1.83 81 1013.0
20260505183203 17 0 1.6 0.0 0.00 1.83 1.83 81 1013.0
20260505183104 17 0 1.6 0.0 0.00 1.83 1.83 80 1013.0
20260505183005 17 0 1.6 0.0 0.00 1.83 1.83 81 1012.9
20260505182903 17 235 1.6 4.8 0.00 1.83 1.83 80 1013.0
20260505182803 17 235 3.2 4.8 0.00 1.83 1.83 80 1012.9
20260505182703 17 235 3.2 6.4 0.00 1.83 1.83 80 1012.9
20260505182603 17 236 3.2 9.7 0.00 1.83 1.83 80 1012.9
20260505182503 18 235 3.2 9.7 0.00 1.83 1.83 80 1012.9
20260505182403 18 233 3.2 9.7 0.00 1.83 1.83 80 1012.8
20260505182306 18 232 4.8 9.7 0.00 1.83 1.83 80 1012.8
20260505182203 18 231 4.8 9.7 0.00 1.83 1.83 80 1012.8
20260505182103 18 230 4.8 9.7 0.00 1.83 1.83 80 1012.7
20260505182003 18 228 4.8 12.9 0.00 1.83 1.83 80 1012.8
20260505181903 18 228 4.8 12.9 0.00 1.83 1.83 80 1012.7
20260505181803 18 228 4.8 12.9 0.00 1.83 1.83 80 1012.8
20260505181703 18 228 4.8 12.9 0.00 1.83 1.83 80 1012.8
20260505181603 18 225 4.8 12.9 0.00 1.83 1.83 80 1012.7
20260505181503 18 223 4.8 14.5 0.00 1.83 1.83 80 1012.8
20260505181403 18 225 4.8 14.5 0.00 1.83 1.83 80 1012.8
20260505181303 18 224 4.8 14.5 0.00 1.83 1.83 80 1012.8
20260505181203 18 223 4.8 14.5 0.00 1.83 1.83 80 1012.9
20260505181103 18 223 4.8 14.5 0.00 1.83 1.83 79 1012.9
20260505181003 18 225 4.8 14.5 0.00 1.83 1.83 79 1012.9
20260505180903 18 226 4.8 14.5 0.00 1.83 1.83 79 1012.9
20260505180803 18 226 4.8 14.5 0.00 1.83 1.83 79 1012.8
20260505180703 18 225 4.8 14.5 0.00 1.83 1.83 79 1012.8
20260505180603 18 226 4.8 14.5 0.00 1.83 1.83 80 1012.8
20260505180503 18 226 4.8 12.9 0.00 1.83 1.83 79 1012.8
20260505180404 18 226 4.8 12.9 0.00 1.83 1.83 79 1012.8
20260505180303 18 226 4.8 12.9 0.00 1.83 1.83 79 1012.8
20260505180203 18 227 4.8 12.9 0.00 1.83 1.83 79 1012.8
20260505180103 18 225 4.8 12.9 0.00 1.83 1.83 79 1012.8
20260505180003 18 223 4.8 12.9 0.00 1.83 1.83 79 1012.8
20260505175903 18 218 4.8 12.9 0.00 1.83 1.83 79 1012.8
20260505175803 18 217 4.8 12.9 0.00 1.83 1.83 79 1012.8
20260505175703 18 216 4.8 12.9 0.00 1.83 1.83 79 1012.9
20260505175604 18 216 6.4 12.9 0.00 1.83 1.83 80 1012.9
20260505175503 18 215 6.4 11.3 0.00 1.83 1.83 80 1012.9
20260505175403 18 214 6.4 11.3 0.00 1.83 1.83 80 1012.9
20260505175305 18 212 6.4 11.3 0.00 1.83 1.83 80 1012.9
20260505175204 18 211 6.4 12.9 0.00 1.83 1.83 79 1012.9
20260505175103 18 211 6.4 16.1 0.00 1.83 1.83 79 1012.9
20260505175003 18 211 6.4 16.1 0.00 1.83 1.83 79 1012.8
20260505174903 18 211 6.4 16.1 0.00 1.83 1.83 79 1012.9
20260505174803 18 211 6.4 16.1 0.00 1.83 1.83 79 1012.9
20260505174703 18 210 6.4 16.1 0.00 1.83 1.83 79 1012.8
20260505174603 18 211 6.4 16.1 0.00 1.83 1.83 79 1012.8
20260505174503 18 212 8.0 16.1 0.00 1.83 1.83 79 1012.8
20260505174403 18 210 8.0 17.7 0.00 1.83 1.83 79 1012.9
20260505174303 18 210 8.0 17.7 0.00 1.83 1.83 79 1012.9
20260505174203 18 211 8.0 17.7 0.00 1.83 1.83 79 1012.9
20260505174103 18 212 8.0 17.7 0.00 1.83 1.83 79 1012.9
20260505174003 18 212 8.0 17.7 0.00 1.83 1.83 79 1012.8
20260505173903 18 212 8.0 17.7 0.00 1.83 1.83 79 1012.9
20260505173803 18 211 8.0 17.7 0.00 1.83 1.83 79 1012.9
20260505173703 18 213 8.0 17.7 0.00 1.83 1.83 79 1012.9
20260505173603 18 212 8.0 17.7 0.00 1.83 1.83 79 1012.9
20260505173503 18 212 8.0 17.7 0.00 1.83 1.83 79 1012.9
20260505173403 18 215 8.0 20.9 0.00 1.83 1.83 79 1012.9
20260505173303 18 215 8.0 20.9 0.00 1.83 1.83 79 1012.9
20260505173203 18 216 8.0 20.9 0.00 1.83 1.83 79 1012.9
20260505173103 18 217 8.0 20.9 0.00 1.83 1.83 79 1012.9
20260505173003 18 218 8.0 20.9 0.00 1.83 1.83 79 1012.9
20260505172903 18 222 8.0 20.9 0.00 1.83 1.83 79 1012.9
20260505172803 18 223 8.0 20.9 0.00 1.83 1.83 79 1012.9
20260505172703 18 221 8.0 20.9 0.00 1.83 1.83 79 1012.9
20260505172603 18 222 8.0 20.9 0.00 1.83 1.83 79 1012.8
20260505172503 18 222 8.0 20.9 0.00 1.83 1.83 79 1012.8
20260505172403 18 223 8.0 17.7 0.00 1.83 1.83 79 1012.8
20260505172305 18 225 8.0 17.7 0.00 1.83 1.83 80 1012.8
20260505172203 18 223 8.0 17.7 0.00 1.83 1.83 80 1012.8
20260505172103 18 224 8.0 17.7 0.00 1.83 1.83 79 1012.7
20260505172003 18 223 8.0 17.7 0.00 1.83 1.83 79 1012.7
20260505171903 18 222 8.0 17.7 0.00 1.83 1.83 79 1012.7
20260505171803 18 222 8.0 17.7 0.00 1.83 1.83 79 1012.7
20260505171703 18 223 8.0 17.7 0.00 1.83 1.83 79 1012.7
20260505171603 18 225 8.0 17.7 0.00 1.83 1.83 79 1012.8
20260505171503 18 225 8.0 17.7 0.00 1.83 1.83 79 1012.8
20260505171403 18 224 8.0 17.7 0.00 1.83 1.83 79 1012.8
20260505171304 18 223 8.0 17.7 0.00 1.83 1.83 79 1012.7
20260505171203 18 223 6.4 17.7 0.00 1.83 1.83 78 1012.7
20260505171103 18 222 6.4 17.7 0.00 1.83 1.83 78 1012.7
20260505171004 18 222 6.4 17.7 0.00 1.83 1.83 78 1012.7
20260505170903 18 220 6.4 17.7 0.00 1.83 1.83 78 1012.7
20260505170803 18 220 6.4 17.7 0.00 1.83 1.83 78 1012.7
20260505170703 18 221 6.4 17.7 0.00 1.83 1.83 78 1012.7
20260505170603 18 221 6.4 17.7 0.00 1.83 1.83 78 1012.7
20260505170503 18 221 6.4 17.7 0.00 1.83 1.83 78 1012.7
20260505170403 18 222 6.4 17.7 0.00 1.83 1.83 78 1012.7
20260505170303 18 223 6.4 14.5 0.00 1.83 1.83 78 1012.6
20260505170203 18 225 6.4 14.5 0.00 1.83 1.83 78 1012.6
20260505170003 18 224 8.0 14.5 0.00 1.83 1.83 78 1012.6
20260505165903 18 224 8.0 16.1 0.00 1.83 1.83 78 1012.6
20260505165803 18 222 8.0 16.1 0.00 1.83 1.83 78 1012.6
20260505165703 18 220 9.7 16.1 0.00 1.83 1.83 78 1012.6
20260505165603 18 217 9.7 16.1 0.00 1.83 1.83 78 1012.6
20260505165503 18 216 9.7 16.1 0.00 1.83 1.83 78 1012.6
20260505165403 18 217 9.7 16.1 0.00 1.83 1.83 78 1012.7
20260505165306 18 216 9.7 16.1 0.00 1.83 1.83 78 1012.7
20260505165204 18 215 9.7 16.1 0.00 1.83 1.83 78 1012.6
20260505165103 18 214 8.0 16.1 0.00 1.83 1.83 78 1012.6
20260505165003 18 213 8.0 16.1 0.00 1.83 1.83 78 1012.7
20260505164903 18 213 8.0 16.1 0.00 1.83 1.83 78 1012.6
20260505164803 18 213 8.0 16.1 0.00 1.83 1.83 78 1012.6
20260505164703 18 213 8.0 16.1 0.00 1.83 1.83 78 1012.7
20260505164603 18 212 8.0 19.3 0.00 1.83 1.83 78 1012.5
20260505164503 18 213 8.0 19.3 0.00 1.83 1.83 78 1012.6
20260505164403 18 212 8.0 19.3 0.00 1.83 1.83 78 1012.6
20260505164303 18 211 8.0 19.3 0.00 1.83 1.83 78 1012.6
20260505164203 18 211 8.0 19.3 0.00 1.83 1.83 78 1012.6
20260505164103 18 210 8.0 19.3 0.00 1.83 1.83 78 1012.6
20260505164003 18 209 8.0 19.3 0.00 1.83 1.83 77 1012.6
20260505163903 18 208 6.4 19.3 0.00 1.83 1.83 77 1012.7
20260505163803 18 209 6.4 19.3 0.00 1.83 1.83 77 1012.6
20260505163703 18 210 6.4 19.3 0.00 1.83 1.83 77 1012.7
20260505163603 18 211 6.4 16.1 0.00 1.83 1.83 77 1012.7
20260505163503 18 212 4.8 16.1 0.00 1.83 1.83 77 1012.7
20260505163403 18 213 4.8 16.1 0.00 1.83 1.83 77 1012.7
20260505163303 18 215 4.8 16.1 0.00 1.83 1.83 77 1012.7
20260505163203 19 216 4.8 16.1 0.00 1.83 1.83 77 1012.7
20260505163105 19 218 4.8 16.1 0.00 1.83 1.83 77 1012.7
20260505163003 19 219 4.8 16.1 0.00 1.83 1.83 77 1012.7
20260505162903 19 221 4.8 14.5 0.00 1.83 1.83 77 1012.7
20260505162803 19 220 4.8 11.3 0.00 1.83 1.83 77 1012.7
20260505162703 19 214 6.4 11.3 0.00 1.83 1.83 76 1012.7
20260505162603 18 212 6.4 11.3 0.00 1.83 1.83 76 1012.7
20260505162503 18 210 6.4 11.3 0.00 1.83 1.83 77 1012.7
20260505162403 19 208 6.4 14.5 0.00 1.83 1.83 77 1012.7
20260505162306 18 209 6.4 14.5 0.00 1.83 1.83 77 1012.7
20260505162204 18 210 6.4 14.5 0.00 1.83 1.83 77 1012.7
20260505162103 18 211 6.4 14.5 0.00 1.83 1.83 77 1012.7
20260505162003 18 214 6.4 14.5 0.00 1.83 1.83 77 1012.7
20260505161903 19 213 6.4 14.5 0.00 1.83 1.83 77 1012.7
20260505161803 19 217 6.4 16.1 0.00 1.83 1.83 78 1012.8
20260505161703 19 218 6.4 16.1 0.00 1.83 1.83 78 1012.8
20260505161603 18 218 6.4 16.1 0.00 1.83 1.83 78 1012.8
20260505161503 18 218 6.4 16.1 0.00 1.83 1.83 77 1012.8
20260505161403 18 218 6.4 16.1 0.00 1.83 1.83 75 1012.8
20260505161303 18 216 6.4 16.1 0.00 1.83 1.83 76 1012.8
20260505161204 18 214 8.0 16.1 0.00 1.83 1.83 76 1012.8
20260505161103 18 215 8.0 16.1 0.00 1.83 1.83 76 1012.8
20260505161003 18 217 8.0 16.1 0.00 1.83 1.83 76 1012.9
20260505160903 18 219 8.0 16.1 0.00 1.83 1.83 76 1012.9
20260505160803 18 218 8.0 16.1 0.00 1.83 1.83 76 1012.9
20260505160703 18 219 8.0 16.1 0.00 1.83 1.83 76 1012.9
20260505160603 18 221 8.0 16.1 0.00 1.83 1.83 77 1012.9
20260505160503 18 221 8.0 16.1 0.00 1.83 1.83 77 1012.9
20260505160403 18 221 8.0 16.1 0.00 1.83 1.83 78 1012.9
20260505160303 18 222 8.0 16.1 0.00 1.83 1.83 77 1012.9
20260505160204 18 223 8.0 16.1 0.00 1.83 1.83 78 1012.9
20260505153303 19 215 8.0 17.7 0.00 1.83 1.83 77 1013.1
20260505153203 19 215 8.0 17.7 0.00 1.83 1.83 77 1013.1
20260505153103 19 215 8.0 17.7 0.00 1.83 1.83 77 1013.1
20260505153003 19 214 8.0 17.7 0.00 1.83 1.83 77 1013.1
20260505152903 19 215 8.0 17.7 0.00 1.83 1.83 77 1013.1
20260505152803 19 214 8.0 17.7 0.00 1.83 1.83 77 1013.2
20260505152703 19 213 8.0 17.7 0.00 1.83 1.83 77 1013.1
20260505152604 19 214 8.0 17.7 0.00 1.83 1.83 77 1013.1
20260505152504 19 215 8.0 17.7 0.00 1.83 1.83 77 1013.1
20260505152403 19 215 8.0 17.7 0.00 1.83 1.83 77 1013.1
20260505152305 19 213 8.0 17.7 0.00 1.83 1.83 77 1013.1
20260505152203 19 212 8.0 17.7 0.00 1.83 1.83 76 1013.1
20260505152103 19 211 8.0 17.7 0.00 1.83 1.83 76 1013.1
20260505152003 20 212 8.0 17.7 0.00 1.83 1.83 76 1013.1
20260505151903 20 212 8.0 17.7 0.00 1.83 1.83 76 1013.1
20260505151803 20 212 8.0 17.7 0.00 1.83 1.83 77 1013.1
20260505151703 20 213 8.0 17.7 0.00 1.83 1.83 76 1013.1
20260505151603 20 213 8.0 17.7 0.00 1.83 1.83 76 1013.0
20260505151503 20 210 8.0 17.7 0.00 1.83 1.83 75 1013.1
20260505151403 20 208 8.0 17.7 0.00 1.83 1.83 75 1013.1
20260505151303 20 208 8.0 17.7 0.00 1.83 1.83 75 1013.0
20260505151203 20 207 8.0 17.7 0.00 1.83 1.83 75 1013.0
20260505151103 20 207 8.0 17.7 0.00 1.83 1.83 74 1013.0
20260505151003 20 207 8.0 17.7 0.00 1.83 1.83 74 1013.0
20260505150903 20 207 8.0 17.7 0.00 1.83 1.83 74 1013.1
20260505150803 20 209 8.0 17.7 0.00 1.83 1.83 74 1013.0
20260505150703 20 208 8.0 17.7 0.00 1.83 1.83 74 1013.0
20260505150603 20 208 8.0 17.7 0.00 1.83 1.83 74 1013.0
20260505150503 20 210 8.0 17.7 0.00 1.83 1.83 73 1013.0
20260505150403 20 211 8.0 17.7 0.00 1.83 1.83 72 1013.0
20260505150303 20 212 8.0 17.7 0.00 1.83 1.83 72 1013.0
20260505150203 20 214 8.0 17.7 0.00 1.83 1.83 71 1013.0
20260505140603 20 230 9.7 16.1 0.00 1.83 1.83 71 1013.0
20260505140503 20 230 9.7 16.1 0.00 1.83 1.83 71 1013.0
20260505140403 20 227 8.0 16.1 0.00 1.83 1.83 71 1013.0
20260505140304 20 227 8.0 16.1 0.00 1.83 1.83 71 1013.0
20260505140203 20 227 8.0 16.1 0.00 1.83 1.83 71 1013.0
20260505130303 20 225 11.3 20.9 0.00 1.83 1.83 76 1013.3
20260505130203 20 224 11.3 20.9 0.00 1.83 1.83 76 1013.3
20260505130103 20 225 11.3 20.9 0.00 1.83 1.83 76 1013.3
20260505125003 20 219 9.7 20.9 0.00 1.83 1.83 74 1013.4
20260505124903 20 217 9.7 20.9 0.00 1.83 1.83 74 1013.4
20260505124803 20 219 11.3 20.9 0.00 1.83 1.83 74 1013.4
20260505124703 20 219 11.3 20.9 0.00 1.83 1.83 74 1013.3
20260505124603 20 219 11.3 20.9 0.00 1.83 1.83 74 1013.3
20260505124503 20 220 11.3 20.9 0.00 1.83 1.83 74 1013.3
20260505124403 20 219 11.3 20.9 0.00 1.83 1.83 74 1013.3
20260505124303 20 219 11.3 20.9 0.00 1.83 1.83 74 1013.3
20260505124203 20 218 11.3 24.1 0.00 1.83 1.83 75 1013.3
20260505124103 20 218 11.3 24.1 0.00 1.83 1.83 75 1013.3
20260505124003 19 217 9.7 24.1 0.00 1.83 1.83 75 1013.4
20260505123903 19 217 9.7 24.1 0.00 1.83 1.83 75 1013.3
20260505123803 19 217 9.7 24.1 0.00 1.83 1.83 75 1013.3
20260505123703 19 215 8.0 24.1 0.00 1.83 1.83 75 1013.3
20260505123603 19 215 8.0 24.1 0.00 1.83 1.83 76 1013.3
20260505123503 19 214 8.0 24.1 0.00 1.83 1.83 76 1013.3
20260505123403 19 215 8.0 24.1 0.00 1.83 1.83 76 1013.3
20260505123303 19 216 8.0 24.1 0.00 1.83 1.83 75 1013.3
20260505123203 19 217 8.0 24.1 0.00 1.83 1.83 74 1013.4
20260505123103 19 218 8.0 22.5 0.00 1.83 1.83 75 1013.3
20260505123003 19 219 8.0 22.5 0.00 1.83 1.83 75 1013.3
20260505122903 20 221 8.0 22.5 0.00 1.83 1.83 73 1013.3
20260505122803 19 218 9.7 19.3 0.00 1.83 1.83 70 1013.4
20260505122703 20 220 9.7 22.5 0.00 1.83 1.83 71 1013.4
20260505122603 19 220 9.7 22.5 0.00 1.83 1.83 71 1013.3
20260505122503 19 220 11.3 22.5 0.00 1.83 1.83 73 1013.4
20260505122403 19 221 11.3 22.5 0.00 1.83 1.83 75 1013.4
20260505122305 19 220 11.3 22.5 0.00 1.83 1.83 74 1013.4
20260505122203 19 220 11.3 22.5 0.00 1.83 1.83 75 1013.4
20260505122103 19 219 11.3 22.5 0.00 1.83 1.83 76 1013.4
20260505122003 19 218 11.3 22.5 0.00 1.83 1.83 76 1013.4
20260505121903 19 217 11.3 22.5 0.00 1.83 1.83 76 1013.4
20260505121804 19 218 11.3 24.1 0.00 1.83 1.83 76 1013.3
20260505121703 19 218 11.3 24.1 0.00 1.83 1.83 76 1013.3
20260505121603 19 220 9.7 24.1 0.00 1.83 1.83 76 1013.3
20260505121503 19 220 9.7 24.1 0.00 1.83 1.83 75 1013.3
20260505121403 19 220 9.7 24.1 0.00 1.83 1.83 76 1013.3
20260505121303 19 219 9.7 24.1 0.00 1.83 1.83 76 1013.3
20260505121203 19 218 9.7 24.1 0.00 1.83 1.83 77 1013.3
20260505121103 19 219 11.3 24.1 0.00 1.83 1.83 76 1013.3
20260505121003 19 221 11.3 24.1 0.00 1.83 1.83 76 1013.4
20260505120903 19 223 11.3 24.1 0.00 1.83 1.83 76 1013.3
20260505120803 19 223 11.3 22.5 0.00 1.83 1.83 76 1013.3
20260505120703 19 223 11.3 22.5 0.00 1.83 1.83 75 1013.3
20260505120603 19 223 11.3 22.5 0.00 1.83 1.83 75 1013.3
20260505120503 19 223 11.3 22.5 0.00 1.83 1.83 73 1013.3
20260505120403 19 224 11.3 22.5 0.00 1.83 1.83 72 1013.3
20260505120303 18 225 11.3 22.5 0.00 1.83 1.83 74 1013.3
20260505120203 18 226 11.3 22.5 0.00 1.83 1.83 76 1013.3
20260505120103 18 226 11.3 22.5 0.00 1.83 1.83 76 1013.3
20260505120004 18 226 9.7 22.5 0.00 1.83 1.83 76 1013.2
20260505115903 19 226 9.7 22.5 0.00 1.83 1.83 76 1013.2
20260505115804 19 225 8.0 20.9 0.00 1.83 1.83 77 1013.2
20260505115703 19 224 8.0 20.9 0.00 1.83 1.83 77 1013.2
20260505115603 19 223 8.0 20.9 0.00 1.83 1.83 76 1013.2
20260505115503 19 222 6.4 20.9 0.00 1.83 1.83 76 1013.1
20260505115403 19 222 6.4 19.3 0.00 1.83 1.83 76 1013.1
20260505115305 19 222 6.4 17.7 0.00 1.83 1.83 76 1013.2
20260505115203 19 222 6.4 17.7 0.00 1.83 1.83 75 1013.2
20260505115103 19 220 6.4 17.7 0.00 1.83 1.83 75 1013.1
20260505115003 19 220 6.4 17.7 0.00 1.83 1.83 75 1013.2
20260505114903 19 219 6.4 17.7 0.00 1.83 1.83 76 1013.2
20260505114803 19 221 8.0 17.7 0.00 1.83 1.83 76 1013.2
20260505114703 19 220 8.0 17.7 0.00 1.83 1.83 76 1013.2
20260505114603 19 220 8.0 16.1 0.00 1.83 1.83 75 1013.2
20260505114503 19 221 8.0 17.7 0.00 1.83 1.83 75 1013.2
20260505114403 19 217 9.7 17.7 0.00 1.83 1.83 75 1013.2
20260505114304 19 216 9.7 17.7 0.00 1.83 1.83 77 1013.2
20260505114203 19 217 9.7 17.7 0.00 1.83 1.83 77 1013.2
20260505114103 19 216 9.7 17.7 0.00 1.83 1.83 77 1013.2
20260505114003 19 216 9.7 19.3 0.00 1.83 1.83 76 1013.3
20260505113903 19 217 9.7 19.3 0.00 1.83 1.83 76 1013.3
20260505113803 19 216 9.7 19.3 0.00 1.83 1.83 76 1013.3
20260505113703 19 217 9.7 19.3 0.00 1.83 1.83 77 1013.3
20260505113603 19 218 9.7 19.3 0.00 1.83 1.83 77 1013.4
20260505113503 19 216 9.7 22.5 0.00 1.83 1.83 76 1013.4
20260505113403 19 218 9.7 22.5 0.00 1.83 1.83 77 1013.3
20260505113303 19 218 9.7 22.5 0.00 1.83 1.83 76 1013.4
20260505113203 19 218 9.7 22.5 0.00 1.83 1.83 76 1013.4
20260505113103 19 218 9.7 22.5 0.00 1.83 1.83 76 1013.4
20260505113003 19 219 9.7 22.5 0.00 1.83 1.83 76 1013.4
20260505112903 19 217 9.7 22.5 0.00 1.83 1.83 76 1013.4
20260505112803 20 217 9.7 22.5 0.00 1.83 1.83 76 1013.4
20260505112703 20 217 9.7 22.5 0.00 1.83 1.83 76 1013.4
20260505112603 20 217 9.7 22.5 0.00 1.83 1.83 77 1013.4
20260505112503 20 217 9.7 19.3 0.00 1.83 1.83 77 1013.4
20260505112403 19 216 9.7 19.3 0.00 1.83 1.83 77 1013.4
20260505112304 19 215 9.7 19.3 0.00 1.83 1.83 76 1013.4
20260505112203 19 214 9.7 19.3 0.00 1.83 1.83 76 1013.3
20260505112103 19 216 9.7 19.3 0.00 1.83 1.83 76 1013.3
20260505112004 19 214 11.3 19.3 0.00 1.83 1.83 76 1013.3
20260505111903 19 212 11.3 19.3 0.00 1.83 1.83 76 1013.3
20260505111803 19 212 11.3 19.3 0.00 1.83 1.83 75 1013.2
20260505111703 19 212 11.3 19.3 0.00 1.83 1.83 76 1013.2
20260505111603 19 212 11.3 20.9 0.00 1.83 1.83 76 1013.2
20260505111503 19 212 11.3 20.9 0.00 1.83 1.83 77 1013.3
20260505111403 19 213 11.3 20.9 0.00 1.83 1.83 77 1013.3
20260505111303 19 213 11.3 22.5 0.00 1.83 1.83 77 1013.3
20260505111203 19 213 9.7 22.5 0.00 1.83 1.83 77 1013.2
20260505111103 19 211 9.7 22.5 0.00 1.83 1.83 77 1013.2
20260505111003 19 212 9.7 22.5 0.00 1.83 1.83 77 1013.2
20260505110903 19 213 9.7 22.5 0.00 1.83 1.83 77 1013.2
20260505110803 19 213 9.7 22.5 0.00 1.83 1.83 76 1013.2
20260505110703 19 213 9.7 22.5 0.00 1.83 1.83 76 1013.2
20260505110603 19 212 8.0 22.5 0.00 1.83 1.83 76 1013.2
20260505110503 19 212 8.0 22.5 0.00 1.83 1.83 76 1013.2
20260505110403 19 211 8.0 22.5 0.00 1.83 1.83 76 1013.2
20260505110303 19 209 8.0 19.3 0.00 1.83 1.83 76 1013.2
20260505110203 19 211 8.0 19.3 0.00 1.83 1.83 76 1013.2